GFSFLT1_con_mucape_000.txt.gz
CAPE
206 144 130 102 366 403 299 158 169 75 40 54 59 39 34 32 15 10 14 9 5 8 2 0 0 0 0 0 0 0 0 0
361 250 176 256 419 476 311 111 65 17 0 6 6 20 30 4 0 0 0 0 0 0 0 0 0 0 0 0 0 0 0 0
229 345 479 457 265 76 42 10 4 0 7 25 30 10 4 0 0 0 0 0 0 0 0 0 0 0 0 0 0 0 0 0
53 69 95 32 4 0 0 0 0 0 0 0 0 0 0 0 0 0 0 0 0 0 0 0 0 0 0 0 0 1 0 0
0 0 0 0 0 0 0 0 0 0 0 0 0 0 0 0 0 0 0 0 0 0 0 0 0 0 1 0 0 0 0 0
4 0 0 0 0 0 0 0 0 0 0 0 0 0 0 0 0 0 0 0 0 0 0 4 6 3 0 0 0 0 0 0
6 0 0 0 0 0 0 0 0 0 0 0 0 0 0 0 0 0 0 0 0 0 0 0 0 0 0 0 0 0 0 0
4 3 0 0 0 0 0 0 0 0 0 0 0 0 0 0 0 0 0 0 0 0 0 0 0 0 0 8 0 0 0 0
13 0 0 0 0 0 0 0 0 0 0 0 0 0 0 0 0 0 0 0 0 0 0 0 4 0 8 6 11 0 0 0
0 0 0 0 0 0 0 0 0 0 0 0 0 0 0 0 0 0 0 0 0 0 6 10 12 30 14 8 0 0 0 0
0 0 0 0 0 0 0 0 0 0 0 0 0 0 0 0 0 0 0 0 0 2 9 26 11 6 4 2 0 0 0 0
0 0 2 4 3 10 13 0 0 0 0 0 0 0 0 0 0 0 0 0 0 11 13 12 0 0 0 0 0 0 0 0
1 4 18 15 14 1 0 0 0 0 0 0 0 0 0 0 0 0 0 0 0 6 1 3 0 0 0 0 0 0 0 0
0 5 18 13 3 0 0 0 0 0 0 0 0 0 0 0 0 0 0 0 0 2 10 0 0 0 0 0 0 0 0 0
0 2 4 7 2 0 0 0 0 0 0 0 0 0 0 0 0 0 0 0 0 1 0 0 0 0 0 0 0 0 0 0
4 7 11 22 4 0 0 0 0 0 0 0 0 0 0 0 0 0 0 0 2 0 0 0 0 0 0 0 0 0 0 0
18 17 26 21 0 0 0 0 0 0 0 0 0 0 0 0 0 0 0 2 0 0 0 0 6 0 0 0 0 0 0 0
28 32 9 0 0 0 0 0 0 0 0 0 0 0 0 0 0 0 0 0 1 5 0 3 10 0 0 0 0 0 0 0
5 0 0 0 0 0 0 0 0 0 0 0 0 0 0 0 0 0 0 3 9 11 5 0 0 0 0 0 0 0 0 0

GFSFLT1_con_mucape_003.txt.gz
CAPE
183 111 320 515 374 163 203 89 68 38 12 8 38 0 0 0 0 6 3 0 0 0 0 0 0 0 0 0 0 0 0 0
284 191 199 245 206 169 197 64 82 2 0 0 0 0 0 8 0 0 0 0 0 0 0 0 0 0 0 0 0 0 0 0
274 328 460 531 522 512 305 90 11 0 0 0 0 0 0 0 0 0 0 0 0 0 0 0 0 0 0 0 1 0 0 0
518 590 590 626 503 171 24 0 0 0 0 0 0 0 0 0 0 0 0 0 0 0 0 0 0 2 4 0 0 0 0 0
16 3 2 2 0 0 0 0 0 0 0 0 0 0 0 0 0 0 0 0 0 0 0 0 0 0 0 0 0 0 0 0
0 0 0 0 0 0 0 0 0 0 0 0 0 0 0 0 0 0 0 0 0 0 0 0 0 0 0 0 0 0 0 0
1 2 0 0 0 0 0 0 0 0 0 0 0 0 0 0 0 0 0 0 0 0 0 0 0 0 1 8 4 3 0 0
1 0 2 0 0 0 0 0 0 0 0 0 0 0 0 0 0 0 0 0 0 0 0 0 0 8 16 5 0 0 0 0
0 1 0 0 0 0 0 0 0 0 0 0 0 0 0 0 0 0 0 0 0 0 0 0 0 11 13 21 0 0 0 0
0 0 0 0 0 0 0 0 0 0 0 0 0 0 0 0 0 0 0 0 0 0 0 0 18 26 22 6 0 0 0 0
0 0 0 0 0 0 0 0 0 2 1 0 0 0 0 0 0 0 0 0 0 0 1 25 16 1 0 0 1 4 0 27
0 0 0 0 3 8 11 3 1 0 0 0 0 0 0 0 0 0 0 0 0 0 21 7 4 0 0 5 3 0 2 25
0 0 2 9 19 18 22 18 0 1 0 0 0 0 0 0 0 0 0 0 0 0 2 0 4 1 0 0 0 0 1 0
2 5 11 18 14 24 23 4 2 0 0 0 0 0 0 0 0 0 0 0 0 0 0 2 0 0 0 0 0 0 0 0
1 7 6 11 15 14 0 0 0 0 0 0 0 0 0 0 0 0 0 0 0 0 3 1 0 0 0 2 0 0 0 0
0 0 7 10 14 1 0 0 0 0 0 0 0 0 0 0 0 0 0 0 0 1 0 0 0 0 11 3 0 0 0 0
0 4 11 5 0 0 0 0 0 0 0 0 0 0 0 0 0 0 0 0 4 0 2 2 1 0 3 0 0 0 0 0
0 10 10 0 0 0 0 0 0 0 0 0 0 0 0 0 0 0 0 0 3 3 7 8 10 0 0 0 0 0 0 0
0 8 0 0 1 0 0 0 0 0 0 0 0 0 0 0 0 0 0 0 0 3 12 13 1 0 0 0 0 0 0 0

GFSFLT1_con_mucape_006.txt.gz
CAPE
374 166 314 568 849 813 598 353 287 402 157 2 25 34 8 7 5 0 0 0 0 0 0 0 0 0 0 0 0 0 0 0
496 662 718 779 979 850 670 458 307 364 76 39 0 0 0 0 0 0 0 0 0 0 0 0 0 0 0 0 0 0 0 0
631 810 850 844 767 701 598 456 377 46 9 0 0 0 0 0 0 0 0 0 0 0 0 0 0 0 0 0 0 0 0 5
831 963 1044 1035 961 927 615 215 1 0 0 0 0 0 0 0 0 0 0 0 0 0 0 0 0 0 0 0 0 0 0 0
965 1123 1193 1073 1004 500 26 0 0 0 0 0 0 0 0 0 0 0 0 0 0 0 0 0 0 0 1 4 0 0 0 0
388 270 249 11 0 0 0 0 0 0 0 0 0 0 0 0 0 0 0 0 0 0 0 0 0 0 7 10 3 0 0 0
0 0 0 0 0 0 0 0 0 0 0 0 0 0 0 0 0 0 0 0 0 0 0 0 8 15 30 6 0 1 4 1
0 0 0 0 0 0 0 0 0 0 0 0 0 1 0 0 0 0 0 0 0 0 0 0 9 44 5 10 4 1 8 0
0 0 0 0 0 0 0 0 0 0 0 0 0 0 0 0 0 0 0 0 0 0 0 7 15 11 7 7 62 48 24 20
0 0 0 0 0 0 0 0 0 0 0 0 0 0 0 0 0 0 0 0 0 0 12 26 25 9 33 18 44 25 22 13
0 0 0 0 0 0 0 0 1 6 1 0 0 0 0 0 0 0 0 0 0 0 28 48 14 46 51 58 41 27 16 27
0 0 0 0 0 0 0 1 6 18 22 0 0 0 0 0 0 0 0 0 0 0 15 44 59 55 71 72 30 25 25 36
0 0 0 0 2 1 3 17 27 25 0 0 0 0 0 0 0 0 0 0 0 0 7 29 57 64 62 15 23 36 44 38
0 0 0 6 7 7 12 30 20 0 0 0 0 0 0 0 0 0 0 0 2 8 18 27 21 24 8 13 43 49 36 34
0 0 4 8 8 7 9 16 0 0 0 0 0 0 0 0 0 0 0 0 4 18 35 48 29 8 3 23 22 32 26 25
0 5 3 1 2 7 11 0 0 0 0 0 0 0 0 0 0 0 0 2 14 35 12 1 6 8 0 1 4 24 23 1
0 0 0 0 3 4 8 0 0 0 0 0 0 0 0 0 0 0 0 2 13 37 51 43 44 7 10 1 0 0 0 0
0 0 0 2 6 21 7 0 0 0 0 0 0 0 0 0 0 0 0 2 20 33 56 47 39 18 0 0 0 0 0 0
0 0 0 6 19 13 3 0 0 0 0 0 0 0 0 0 0 0 4 14 18 20 32 42 39 0 0 0 0 0 0 0

GFSFLT1_con_mucape_009.txt.gz
CAPE
536 406 293 615 936 843 817 681 440 546 550 93 0 0 0 0 0 0 0 0 0 0 0 0 0 0 0 1 0 0 1 12
809 547 623 819 1131 1086 973 736 636 706 348 108 11 0 0 0 0 0 0 0 0 0 0 0 0 0 1 9 18 24 8 1
784 884 871 1021 1291 1244 1019 826 727 280 76 10 41 16 0 0 0 0 0 0 0 0 0 0 1 0 2 10 25 19 1 0
1042 1069 1146 1238 1217 1060 924 700 273 23 5 0 0 0 0 0 0 0 0 0 0 0 0 0 0 2 0 10 7 16 5 0
1248 1250 1144 1213 1191 984 525 144 3 0 0 0 0 2 2 0 0 0 0 0 0 0 0 0 0 0 1 3 6 12 11 7
1254 1398 1370 1115 882 530 46 0 0 0 0 0 0 0 0 0 0 0 0 0 0 0 0 0 0 0 2 11 29 27 21 31
1000 811 710 374 111 2 0 0 0 0 0 0 0 0 0 1 0 1 0 0 0 0 0 0 0 0 10 30 34 30 33 19
202 163 0 0 0 0 0 0 0 0 0 0 0 0 0 0 0 0 0 0 0 0 0 0 0 2 19 11 21 24 31 22
0 0 0 0 0 0 0 0 0 0 0 0 0 0 0 0 0 0 0 0 0 0 0 0 8 16 10 20 57 77 66 50
0 0 0 0 0 0 0 0 0 0 0 0 0 0 0 0 0 0 0 0 0 0 0 7 25 32 36 63 60 77 68 54
0 0 0 0 0 0 0 0 0 0 0 0 0 2 0 0 0 0 0 0 0 0 0 0 20 54 59 52 56 63 39 53
0 0 0 0 0 0 0 0 0 0 0 1 21 1 0 0 0 0 0 0 0 0 0 0 8 25 44 58 63 76 50 65
0 0 0 0 0 0 0 0 0 1 2 18 4 0 0 0 0 0 0 0 0 0 0 8 22 31 28 30 50 45 66 59
0 0 0 0 0 0 1 3 3 3 23 39 0 0 0 0 0 0 0 0 0 0 9 23 30 38 40 54 41 55 45 64
0 0 0 0 0 6 8 9 11 18 22 1 0 0 0 0 0 0 0 0 0 5 15 20 21 23 19 27 28 36 47 44
0 0 0 0 12 30 32 2 12 7 10 0 0 0 0 0 0 0 0 0 2 7 21 32 28 36 12 2 14 33 30 21
0 0 0 0 15 28 5 0 1 8 15 0 0 0 0 0 0 0 0 1 3 12 26 31 47 33 0 0 0 0 0 9
0 0 0 0 0 0 0 1 5 26 3 0 0 0 0 0 0 0 0 4 12 23 24 27 57 41 0 0 0 0 0 7
0 0 0 0 0 0 11 25 12 10 11 0 0 0 0 0 0 0 2 14 24 24 24 33 39 10 0 0 0 0 1 2

GFSFLT1_con_mucape_012.txt.gz
CAPE
188 100 367 674 496 508 810 731 624 338 504 78 6 0 0 0 0 0 0 0 0 0 0 0 0 0 0 0 0 0 1 0
432 321 474 954 832 665 763 697 571 604 321 1 0 0 0 0 0 0 0 0 0 0 0 0 0 0 0 0 0 0 0 0
742 645 505 906 1010 873 884 688 657 682 182 44 59 0 0 0 0 0 0 0 0 0 0 0 0 0 0 0 0 0 0 0
886 708 935 1412 1058 1044 988 655 719 127 2 0 0 0 0 0 0 0 0 0 0 0 0 0 0 0 0 0 0 0 0 0
883 1055 1063 1416 1024 997 798 620 87 0 0 0 0 0 0 0 0 0 0 0 0 0 0 0 0 0 0 0 0 0 0 0
1062 1149 1175 1152 821 1007 559 205 11 0 0 0 0 0 0 0 0 0 0 0 0 0 0 0 0 0 0 0 7 2 1 0
1066 1047 938 809 820 458 190 73 0 0 0 0 0 0 0 0 0 0 0 0 0 0 0 0 0 0 0 4 0 0 0 1
1014 1042 1030 775 430 235 102 4 0 0 0 0 0 0 0 0 0 1 5 0 0 0 0 0 0 0 0 0 0 0 0 0
856 681 489 447 213 71 0 0 0 0 0 0 0 0 0 0 1 14 12 0 0 0 0 0 0 0 0 0 0 5 18 19
285 203 120 0 0 0 0 0 0 0 0 0 0 0 0 0 8 3 0 0 0 0 0 0 0 1 7 8 14 29 4 4
23 1 0 0 0 0 0 0 0 0 0 0 0 0 0 6 9 0 0 0 0 0 0 0 0 0 24 24 33 28 26 31
0 0 0 0 0 0 0 0 0 0 0 0 0 1 4 16 0 0 0 0 0 0 0 0 0 0 0 6 14 5 50 16
0 0 0 0 0 0 0 0 0 0 0 0 2 4 22 10 0 0 0 0 0 0 0 0 0 10 7 3 9 10 27 13
0 0 0 0 0 0 0 0 0 0 1 8 13 37 34 24 0 0 0 0 0 0 0 0 10 3 8 8 15 15 6 5
3 0 0 0 0 0 0 0 5 2 10 25 48 45 44 0 0 0 0 0 0 0 0 11 8 0 4 5 2 0 3 4
41 57 36 9 3 0 0 9 26 33 44 39 35 6 0 0 0 0 0 0 0 0 0 16 20 19 13 2 0 0 0 0
54 108 83 75 61 36 0 0 10 23 34 35 24 6 0 0 0 0 0 0 0 0 0 13 18 35 8 3 2 0 0 0
0 19 48 71 27 0 0 0 0 0 13 37 14 2 0 0 0 0 0 0 0 0 7 5 6 19 11 8 0 0 0 0
0 0 0 0 0 0 0 0 0 0 24 8 9 0 0 0 0 0 0 0 2 5 6 4 2 4 4 3 0 0 0 0

GFSFLT1_con_mucape_015.txt.gz
CAPE
65 308 265 224 80 392 575 469 169 63 26 13 0 0 0 0 0 0 0 0 0 0 0 0 0 0 0 0 0 0 0 0
24 270 327 347 324 573 507 263 111 88 137 5 0 0 0 0 0 0 0 0 0 0 0 0 0 0 0 0 0 0 0 0
146 334 486 528 433 580 546 405 219 118 209 0 0 0 0 0 0 0 0 0 0 0 0 0 0 0 0 0 0 0 0 0
364 275 595 661 666 527 514 420 220 283 261 0 0 0 0 0 0 0 0 0 0 0 0 0 0 0 0 0 0 0 0 0
489 333 687 651 661 708 632 556 442 371 19 0 0 0 0 0 0 0 0 0 0 0 0 0 0 0 0 0 0 0 0 0
684 549 760 824 857 831 724 585 416 98 10 0 0 0 0 0 0 0 0 0 0 0 0 0 0 0 0 0 0 0 0 0
704 794 983 952 961 955 722 569 407 85 0 0 0 0 0 0 0 0 0 0 0 0 0 0 0 0 0 0 0 0 0 1
810 890 896 806 723 721 608 536 415 163 2 0 0 0 0 0 0 0 0 0 0 0 0 0 0 0 0 0 0 0 0 0
989 1003 916 787 674 691 370 345 228 232 0 0 0 0 0 0 0 0 0 3 3 0 0 0 0 0 0 0 0 0 0 0
935 930 728 675 723 565 364 166 174 148 0 0 0 0 0 0 0 0 1 0 0 0 0 0 0 0 0 0 0 4 9 0
774 816 814 690 697 556 465 221 64 2 0 0 0 0 0 0 0 2 10 16 0 0 0 0 0 0 0 1 5 3 5 12
481 367 401 474 472 326 0 0 0 0 0 0 0 0 0 0 2 10 20 0 0 0 0 0 0 0 0 0 0 0 1 1
246 72 29 3 0 0 0 0 0 0 0 0 0 1 9 6 13 30 1 1 0 0 0 0 0 0 0 0 0 0 0 0
145 60 0 0 0 0 0 0 0 2 16 2 0 0 2 11 20 18 0 0 0 0 0 0 0 0 0 0 0 0 0 0
78 16 1 1 0 3 2 19 43 61 62 28 35 9 6 13 8 0 0 0 0 0 0 0 0 0 0 0 0 0 0 0
22 36 31 32 32 38 40 43 63 92 61 26 12 3 11 2 0 0 0 0 0 0 0 0 0 0 0 0 0 5 4 1
0 6 57 51 37 37 65 70 69 68 40 5 2 1 2 0 0 0 0 0 0 0 0 0 0 0 7 3 9 9 3 0
0 0 52 72 79 63 48 46 45 27 21 8 0 0 0 0 0 0 0 0 0 0 0 0 1 1 0 1 3 5 2 0
0 0 0 21 20 25 21 20 25 16 6 7 0 0 0 0 0 0 0 0 0 0 0 1 0 1 3 1 6 2 0 0

GFSFLT1_con_mucape_018.txt.gz
CAPE
558 548 372 499 286 193 354 324 265 225 135 33 13 0 0 0 0 0 0 0 0 0 0 0 0 0 0 0 0 0 0 0
552 332 330 365 179 282 482 497 414 319 24 22 24 0 0 0 0 0 0 0 0 0 0 0 0 0 0 0 0 0 0 0
446 425 414 397 309 365 648 644 500 217 10 7 8 0 0 0 0 0 0 0 0 0 0 0 0 0 0 0 0 0 0 0
370 458 456 388 420 562 707 542 248 123 99 48 20 0 0 0 0 0 0 0 0 0 0 0 0 0 0 0 0 0 0 0
148 335 402 438 536 722 671 407 220 113 100 184 95 0 0 0 0 0 0 0 0 0 0 0 0 0 0 0 0 0 0 0
226 224 374 449 616 738 648 529 418 145 243 358 71 1 0 0 0 0 0 0 0 0 0 0 0 0 0 0 0 0 0 0
243 290 379 461 658 718 607 684 588 391 393 283 29 13 2 3 0 0 0 0 0 0 0 0 0 0 0 0 0 0 0 0
363 363 478 631 679 638 722 793 662 479 319 219 18 19 20 0 0 0 0 0 0 0 0 1 0 0 0 0 0 0 0 0
526 641 720 766 683 640 834 768 718 532 398 277 131 66 30 0 0 0 0 0 0 0 0 1 0 0 0 0 0 0 0 0
784 831 898 927 949 885 740 688 658 458 529 266 168 86 26 0 0 0 0 0 0 0 0 1 0 0 0 0 0 0 0 4
755 871 945 958 919 826 803 709 594 414 334 210 124 97 37 0 0 0 0 0 0 0 8 0 0 0 0 0 0 0 0 0
911 1025 1070 1025 851 698 666 683 558 399 386 191 91 37 1 0 0 0 0 0 1 1 2 0 0 0 0 0 0 0 0 0
846 924 942 891 853 765 719 782 628 353 210 41 50 54 59 35 5 1 3 6 2 0 0 0 0 0 0 0 0 0 0 0
788 722 675 766 816 797 790 628 263 6 37 37 52 72 52 29 18 11 10 4 1 4 0 0 0 0 0 0 0 0 0 0
677 621 505 575 661 643 353 82 28 26 47 50 64 80 48 22 13 7 1 0 0 0 0 0 0 0 0 0 0 1 5 3
495 422 228 160 124 93 46 27 25 31 28 44 62 46 18 18 12 5 0 0 0 0 0 0 0 0 0 0 1 2 4 6
0 0 0 0 15 51 32 30 30 52 54 68 37 38 18 15 6 0 0 0 0 0 0 0 0 0 0 3 2 2 3 0
0 0 0 0 1 18 55 45 48 64 60 32 17 21 11 12 6 2 0 0 0 0 0 0 0 0 0 4 2 4 3 3
0 0 0 0 0 22 48 63 58 45 27 45 21 25 15 9 6 1 0 0 0 0 0 0 0 0 0 1 3 6 11 5

GFSFLT1_con_mucape_021.txt.gz
CAPE
244 276 551 532 478 363 384 468 341 210 281 398 319 79 29 30 9 0 0 0 0 0 0 0 0 0 0 0 0 0 0 0
477 490 643 613 422 456 311 241 280 298 284 316 226 17 0 0 0 0 0 0 0 0 0 0 0 0 0 0 0 0 0 0
626 662 653 603 565 462 345 334 356 360 313 226 106 18 5 0 0 0 0 0 0 0 0 0 0 0 0 0 0 0 0 0
525 604 578 550 527 372 334 427 402 304 268 182 18 23 16 0 0 0 0 0 0 0 0 0 0 0 0 0 0 0 0 0
462 565 559 366 469 297 281 468 466 433 407 250 17 16 27 0 0 0 0 0 0 0 0 0 0 0 0 2 0 0 0 0
328 449 506 379 411 254 219 470 651 651 434 154 44 45 45 8 0 0 0 0 0 0 0 0 0 0 1 0 0 0 0 0
214 309 402 440 485 314 315 658 773 584 225 217 72 102 111 63 22 7 5 3 0 0 0 0 0 0 0 0 0 0 0 0
267 220 319 435 512 335 392 711 623 385 310 435 338 163 357 113 54 46 36 11 0 0 0 0 0 0 4 0 0 0 0 0
320 328 311 244 388 422 571 693 619 504 414 458 326 309 242 142 68 38 31 24 0 3 1 0 0 1 14 0 0 0 0 0
304 394 416 346 305 362 540 687 652 598 537 487 404 186 132 41 26 47 51 21 4 4 0 0 3 0 3 0 0 0 0 0
185 336 438 470 472 587 672 609 617 681 614 417 189 92 42 51 42 70 44 4 0 3 1 2 2 0 10 0 0 0 0 0
353 405 550 545 656 716 780 837 781 685 400 282 230 125 92 64 74 27 30 8 2 20 14 11 3 6 0 0 0 0 0 0
565 657 702 723 839 898 949 912 823 621 434 316 195 70 59 55 43 46 61 28 23 20 12 10 15 2 0 0 0 0 0 0
556 682 760 829 891 953 988 898 743 476 397 142 47 51 44 36 40 51 28 20 17 11 6 6 1 0 0 0 0 0 0 0
358 785 900 986 1030 1019 854 759 485 150 138 107 155 30 29 33 51 32 32 15 17 10 7 2 0 0 0 0 0 0 0 0
270 574 839 863 803 678 557 421 235 173 56 82 36 13 33 58 51 36 24 19 18 13 7 0 0 0 0 0 0 0 0 3
0 28 40 40 97 137 231 265 137 74 61 45 26 50 73 59 39 46 28 21 8 1 0 0 0 0 0 0 0 0 2 2
0 0 0 0 0 0 0 0 0 11 41 35 45 60 51 30 24 17 12 12 5 0 0 0 0 0 0 0 0 0 2 4
0 0 0 0 0 0 0 0 0 0 28 52 70 63 43 19 6 21 11 5 0 0 0 0 0 0 0 0 0 0 1 0

GFSFLT1_con_mucape_024.txt.gz
CAPE
62 77 132 258 284 264 228 274 295 289 119 138 137 366 450 482 199 90 91 71 20 0 0 0 0 0 0 0 0 0 0 0
183 168 222 399 403 333 268 340 314 365 234 269 403 446 394 129 114 90 43 13 0 0 0 0 0 0 0 0 0 0 0 0
302 249 279 466 514 447 332 441 493 472 293 272 360 293 34 17 7 0 0 0 0 0 0 0 0 0 0 0 0 0 0 0
400 391 394 497 597 502 419 411 349 362 214 231 309 263 55 19 4 0 0 0 0 0 0 0 0 0 0 0 0 0 0 0
622 566 579 576 658 599 513 370 248 236 285 342 333 218 32 7 10 0 0 0 0 0 0 0 0 0 0 0 0 0 0 0
568 624 659 633 615 641 614 540 353 316 384 368 265 231 104 25 19 6 0 0 0 0 0 0 0 0 0 0 0 0 0 0
510 475 593 565 603 548 592 524 395 422 423 330 249 308 122 56 54 38 37 19 6 29 53 14 0 0 0 0 0 0 4 0
384 327 343 504 602 585 494 533 343 282 366 306 282 315 187 187 78 133 52 56 57 38 34 19 1 1 0 0 5 3 0 0
298 259 263 322 461 573 444 498 371 194 328 335 237 225 347 224 154 100 137 95 37 38 60 30 2 13 14 13 11 4 3 0
19 135 210 257 235 405 459 503 456 280 351 329 272 184 128 219 135 110 169 80 44 50 27 24 31 26 2 4 9 1 0 0
7 80 154 210 311 415 353 437 483 368 394 410 327 344 332 310 138 95 123 57 51 45 10 21 26 7 18 12 2 0 0 0
80 145 184 232 252 364 395 251 373 411 520 586 479 531 455 289 126 59 64 47 93 33 26 27 24 17 16 6 0 0 0 0
215 200 196 230 312 315 315 298 455 406 467 557 500 317 225 86 52 19 55 53 45 43 20 22 15 21 13 4 0 0 0 0
92 336 376 382 435 591 568 439 506 511 522 500 412 306 146 65 27 42 41 36 58 34 22 14 19 9 2 0 0 0 0 0
62 172 408 546 653 645 646 666 664 612 441 299 184 83 67 47 51 22 41 40 41 26 19 27 27 14 0 0 0 0 0 0
57 118 188 403 584 608 649 590 487 425 405 225 93 50 44 55 45 32 40 31 27 9 30 15 6 0 0 0 0 0 0 0
0 0 11 67 41 6 0 0 4 7 19 60 69 55 54 66 43 41 30 33 29 17 8 0 13 0 0 0 0 0 0 0
0 0 0 0 0 0 0 0 0 0 0 0 8 44 58 54 44 59 59 64 49 24 14 0 0 0 0 0 0 0 0 0
0 0 0 0 0 0 0 0 0 0 0 0 0 14 48 64 70 54 26 3 4 28 0 0 0 0 0 0 0 0 0 0

GFSFLT1_con_mucape_027.txt.gz
CAPE
129 125 88 76 148 187 143 133 217 270 185 7 25 122 309 388 317 304 339 225 36 21 0 0 0 0 0 0 0 0 0 0
161 174 194 186 254 256 248 235 246 286 118 45 94 214 413 411 351 396 136 40 46 8 0 0 0 0 0 0 0 0 0 0
333 207 225 295 367 376 354 320 266 315 149 95 187 162 329 298 364 89 97 71 15 0 0 0 0 0 0 0 0 0 0 0
526 430 310 349 449 482 434 360 312 303 304 258 228 365 374 368 140 12 6 2 0 0 0 0 0 0 0 0 0 0 0 0
728 522 438 391 422 455 418 337 304 406 387 459 342 365 335 78 24 0 6 0 0 0 0 0 0 0 0 0 0 0 0 2
658 698 623 502 440 421 538 460 374 505 510 509 285 260 271 113 76 31 12 12 2 0 0 0 0 15 36 40 4 0 7 3
491 589 695 666 519 478 572 589 452 480 249 301 245 261 291 182 153 68 26 31 31 1 9 19 56 17 37 11 3 8 6 0
589 541 505 632 621 630 567 635 558 582 454 262 178 282 346 291 206 176 88 49 72 45 46 48 42 45 51 13 3 3 0 0
403 466 454 572 605 646 716 661 630 620 622 439 372 385 317 194 81 99 142 73 52 86 81 57 56 43 9 8 1 0 0 0
14 111 346 438 477 480 654 714 698 611 647 550 390 374 283 149 91 77 133 90 110 55 47 49 22 0 4 0 1 9 1 0
0 3 5 214 299 317 330 537 710 669 545 594 474 271 283 202 104 108 128 101 100 60 58 19 3 7 0 0 0 1 3 0
3 54 130 193 212 265 271 350 401 447 514 563 557 272 165 167 131 130 160 132 84 20 40 4 20 6 1 0 2 5 0 0
22 67 147 166 125 148 209 229 273 315 367 456 422 293 294 281 152 183 119 66 20 34 47 23 30 0 0 0 4 0 0 0
21 141 189 219 199 200 227 294 382 379 349 331 337 339 280 179 81 76 88 50 45 48 28 34 6 3 3 2 1 0 0 0
17 46 196 355 440 546 623 628 615 534 549 526 513 425 305 126 68 57 42 56 47 13 17 10 3 1 1 0 0 0 0 0
41 94 166 320 504 631 628 592 485 309 128 78 76 87 144 123 50 16 42 44 48 32 16 19 5 0 3 0 0 0 0 0
13 37 24 10 25 94 49 1 0 0 0 0 0 0 18 14 27 39 63 59 44 29 5 11 15 9 0 0 0 0 0 0
0 0 0 0 0 0 0 0 0 0 0 0 0 0 0 1 21 48 54 31 19 21 3 0 7 0 0 0 0 0 0 0
0 0 0 0 0 0 0 0 0 0 0 0 0 0 0 0 9 26 53 34 9 7 1 1 0 0 0 0 0 0 0 0

GFSFLT1_con_mucape_030.txt.gz
CAPE
326 397 477 173 131 166 200 299 447 687 619 228 42 329 646 853 778 541 220 189 215 105 0 0 0 0 0 0 0 0 0 0
213 373 448 369 434 303 289 303 425 749 647 171 92 439 663 825 765 456 312 203 203 10 0 0 0 0 0 0 0 0 0 0
320 324 314 268 423 532 524 517 605 766 501 156 176 375 623 819 575 355 337 322 68 9 7 0 0 0 0 0 0 0 0 0
549 511 464 390 366 476 544 630 710 711 479 250 437 555 298 473 299 254 253 157 25 32 1 0 0 0 0 0 0 0 9 2
816 1030 969 735 658 594 647 615 723 805 749 522 411 459 525 432 216 149 120 48 16 3 0 0 0 0 0 0 9 10 11 0
947 963 1139 1199 1001 885 1035 984 902 840 847 650 582 688 746 683 117 48 48 21 19 21 25 0 0 0 0 6 11 1 0 0
946 1039 1198 1248 1303 1164 1096 1213 1099 920 944 862 844 861 888 388 45 67 57 63 54 44 32 28 0 0 1 17 26 16 0 0
1094 1154 1246 1401 1437 1441 1366 1341 1195 1091 1071 978 1001 976 791 218 83 112 78 71 82 44 27 49 23 6 19 32 29 13 1 0
965 1100 1248 1350 1542 1592 1563 1397 1400 1253 1128 958 683 483 262 174 139 212 159 101 41 63 58 0 25 39 18 19 0 0 0 0
397 714 1107 1248 1460 1651 1671 1480 1268 1380 1231 1075 871 532 246 197 116 145 101 64 41 38 61 40 48 73 38 32 0 5 0 0
72 215 444 711 1098 1400 1497 1559 1343 1333 1352 1145 1036 699 504 419 186 173 120 66 59 46 54 58 44 0 1 1 3 3 4 0
346 194 253 353 659 1027 1138 1241 1114 1234 1458 1269 1187 874 514 439 139 84 131 102 76 75 57 23 0 0 4 8 9 5 7 5
437 513 445 466 646 790 879 1021 1099 1227 1268 1191 1098 448 482 477 269 139 112 96 49 72 61 28 13 8 2 7 6 0 0 0
449 764 737 786 788 766 807 886 942 954 692 384 388 295 357 406 373 206 109 75 73 82 95 60 53 0 5 1 1 1 0 0
376 708 855 874 834 819 785 721 555 507 497 518 511 470 381 307 250 156 89 32 28 39 60 33 21 7 3 9 5 1 0 0
401 637 756 745 653 652 712 753 703 554 429 281 61 11 3 15 40 69 65 63 47 24 30 11 10 0 6 4 10 0 0 0
14 168 303 357 364 381 383 207 115 47 5 0 0 0 0 0 0 0 1 6 26 14 43 3 1 0 0 0 0 0 0 0
3 8 10 6 0 0 0 0 0 0 0 0 0 0 0 0 0 0 2 2 14 24 10 6 9 0 0 0 0 0 0 0
0 0 0 0 0 0 0 0 0 0 0 0 0 0 0 0 0 0 0 4 0 0 0 0 0 0 0 0 0 0 0 0

GFSFLT1_con_mucape_033.txt.gz
CAPE
224 47 75 86 76 30 86 183 158 149 356 344 109 15 126 358 712 777 765 504 274 260 130 0 0 0 0 0 0 0 0 0
224 328 116 151 120 67 55 110 193 377 402 285 49 15 163 551 784 845 697 464 254 197 79 8 0 0 0 0 0 0 0 0
187 352 391 295 267 283 220 189 301 379 258 258 30 64 163 547 1029 793 708 577 226 144 109 0 0 0 0 0 0 0 0 0
228 233 432 459 451 397 400 397 434 548 427 280 39 40 360 482 690 778 755 534 244 95 63 0 1 0 0 0 0 0 0 0
336 323 299 419 456 585 535 504 485 532 531 333 107 228 294 561 691 702 602 538 290 77 13 3 0 0 0 0 0 0 0 3
469 506 470 420 571 564 728 609 627 649 728 640 463 438 477 538 691 730 561 597 227 48 7 11 7 17 0 0 0 0 0 10
453 571 764 811 766 1002 1040 710 639 715 861 942 1264 886 768 769 1171 703 573 259 35 44 30 30 27 34 34 1 0 0 0 0
487 506 698 881 1227 1301 1179 951 869 887 1042 1104 1288 1028 1117 1088 960 644 129 21 23 35 36 52 26 12 21 3 0 0 0 17
701 613 631 825 1039 1449 1525 1300 1219 1128 1503 1348 1467 1116 1179 1466 1034 534 55 28 30 42 0 4 41 40 17 4 1 0 2 0
695 712 885 999 1106 1621 2127 1647 1459 1418 1476 1280 1553 1308 1272 1403 1061 542 121 38 40 51 82 9 2 24 35 8 0 0 0 0
258 473 841 1045 1244 1528 2318 1945 1813 1684 1741 1524 1551 1555 1255 1130 781 264 184 100 51 6 3 13 21 35 21 5 0 0 0 3
500 354 416 675 1122 1412 1753 2038 2033 1959 1747 1813 1888 1505 1158 948 541 366 322 148 63 36 48 37 42 65 24 14 3 1 0 0
588 633 524 523 719 1037 1442 1718 1791 1877 1777 1726 1707 1173 979 872 514 283 367 299 116 49 49 49 53 64 57 3 0 1 0 4
575 872 842 812 934 1088 1220 1358 1402 1411 1497 1639 1573 1196 957 908 543 297 239 191 149 263 282 82 120 69 48 32 4 2 1 1
301 963 1108 1024 1006 1077 1176 1255 1255 1247 1168 945 974 723 708 485 298 211 159 109 156 143 94 63 64 87 16 28 9 0 4 0
435 800 1147 1177 1208 1193 1190 973 784 612 564 577 443 398 122 25 7 2 8 33 32 17 61 45 38 53 21 20 1 1 0 0
601 885 978 954 976 834 500 596 625 414 326 152 80 17 0 0 0 0 0 0 0 4 6 4 6 6 11 0 0 0 0 0
168 86 23 58 193 285 329 202 91 53 19 6 0 0 0 0 0 0 0 0 0 2 5 2 8 0 0 0 0 0 0 0
0 0 0 35 49 49 23 1 0 0 0 0 0 0 0 0 0 0 0 0 0 0 0 0 0 0 0 0 0 0 0 0

GFSFLT1_con_mucape_036.txt.gz
CAPE
0 0 0 0 0 0 0 0 0 0 7 20 4 25 81 54 129 467 423 442 402 343 380 129 21 0 0 0 0 0 0 0
35 6 1 0 0 0 0 0 0 18 15 7 109 0 2 11 331 483 494 490 338 328 288 77 26 0 0 0 0 0 0 0
74 84 38 6 0 0 0 3 5 8 18 122 103 0 0 21 472 521 397 333 274 295 246 84 21 0 0 0 0 0 0 0
115 130 81 108 32 7 52 116 95 67 118 181 153 10 3 2 565 652 565 476 447 185 142 85 30 6 0 0 0 0 0 0
130 158 275 173 205 130 89 41 45 98 173 89 142 2 0 56 533 585 588 646 493 258 152 115 44 14 3 0 0 0 0 0
73 125 283 401 388 346 278 263 244 270 345 368 284 37 3 35 512 558 646 573 508 292 199 58 28 21 32 35 23 4 0 0
279 176 201 374 405 517 588 459 442 376 449 411 494 145 191 346 493 577 521 380 463 369 136 50 19 32 28 11 11 0 0 0
310 363 286 285 372 495 643 642 586 603 670 759 500 626 434 484 665 680 539 454 469 384 138 42 31 27 10 2 0 3 1 2
517 310 496 546 501 586 581 622 622 584 677 838 864 649 828 869 745 648 507 363 264 133 36 11 36 0 0 5 24 30 17 0
546 513 449 752 905 932 954 895 762 738 762 764 743 1080 844 789 476 507 544 320 249 118 31 41 19 22 32 34 19 33 14 7
392 597 661 686 784 1243 1380 1116 972 1008 1017 1053 1015 881 854 699 548 711 599 432 257 228 57 43 58 53 36 32 38 8 25 0
355 353 370 739 879 843 1129 1256 1378 1308 1288 1257 1051 787 704 329 689 758 537 365 278 213 182 133 90 51 59 47 24 15 0 2
465 540 448 508 706 1183 1688 1670 1683 1798 1735 1260 988 1108 1105 924 798 683 582 580 196 124 88 102 67 51 59 29 56 32 6 2
447 668 665 612 690 904 1169 1716 1816 1784 1763 1391 1224 1176 1085 819 779 913 680 516 429 154 66 51 220 156 65 35 15 10 8 1
179 674 854 890 1011 1140 1242 1338 1343 1262 1382 1218 1266 1340 881 756 705 707 562 176 62 41 57 27 17 11 33 26 8 24 3 3
155 771 965 987 1074 1115 1164 1164 1106 1110 1218 970 1009 918 641 499 295 111 47 0 1 1 0 0 8 11 18 24 2 5 2 6
281 516 1096 1097 1116 1067 1017 921 1008 919 705 600 575 371 129 35 8 0 0 0 0 0 0 0 0 2 2 3 11 0 2 0
540 891 967 943 856 851 709 450 362 378 353 248 105 52 10 2 0 0 0 0 0 0 0 0 1 2 0 0 0 0 0 0
321 439 478 424 487 414 265 264 278 111 56 27 3 0 0 0 0 0 0 0 0 0 0 0 0 0 0 0 0 0 0 0

GFSFLT1_con_mucape_039.txt.gz
CAPE
0 0 0 0 0 0 0 0 1 3 6 7 10 0 0 0 21 91 161 180 202 156 138 93 12 0 0 0 0 0 0 0
0 0 0 0 0 0 0 0 0 0 0 0 0 0 0 6 7 202 246 200 351 258 155 167 35 0 0 0 0 0 0 0
0 0 0 0 0 0 0 0 0 0 0 0 0 0 9 0 0 61 229 258 292 270 156 116 68 19 1 0 0 0 0 0
1 0 0 0 0 0 0 0 0 0 0 0 0 2 22 0 0 39 194 270 219 128 181 147 92 48 2 0 0 0 0 0
4 0 0 0 0 0 0 0 0 0 0 0 0 0 0 0 0 130 198 237 104 71 206 152 160 57 10 16 16 22 11 7
23 22 14 0 0 0 0 0 0 0 0 0 0 0 0 0 0 185 220 180 243 283 156 98 93 50 30 35 5 1 8 4
98 25 16 0 16 11 0 0 0 0 0 0 12 17 12 1 0 272 269 307 340 359 232 191 119 65 51 32 15 0 0 2
142 82 57 37 41 47 19 0 0 0 3 0 19 21 84 98 19 82 445 488 394 345 359 222 151 114 64 51 20 0 0 2
214 135 110 116 109 88 77 63 46 22 55 78 51 59 144 153 59 191 355 270 333 318 311 279 146 133 82 46 40 0 37 35
218 150 115 123 181 182 203 215 185 133 193 175 185 152 106 211 135 274 212 241 145 137 238 232 206 177 75 50 36 31 61 54
309 213 180 177 162 201 212 257 348 317 215 287 331 392 321 302 482 263 88 28 115 128 192 129 108 76 72 58 62 69 94 29
262 332 280 230 217 235 224 276 253 381 381 170 294 389 454 495 411 243 93 76 194 247 188 138 172 131 107 104 91 40 33 26
268 209 277 280 381 326 301 292 352 192 118 336 331 259 316 330 446 186 43 162 465 327 223 218 244 89 113 150 31 51 47 14
309 403 341 299 361 653 843 665 641 483 322 299 424 506 523 186 181 291 246 481 261 267 284 149 168 40 86 11 1 3 22 5
345 407 472 454 517 830 1203 1153 918 801 829 899 801 803 640 651 590 533 511 447 279 216 144 20 3 3 5 3 6 15 4 9
349 424 503 645 837 965 955 940 936 927 1026 1031 974 894 926 760 538 376 211 247 81 28 4 4 4 5 7 11 16 13 8 3
9 400 636 820 923 1003 1028 975 933 910 944 915 903 945 886 713 401 227 57 21 0 2 3 1 3 6 6 4 0 11 4 8
125 685 727 753 822 862 931 986 977 859 896 951 870 775 582 227 32 2 0 0 0 0 0 0 0 0 4 2 2 1 0 0
493 809 816 816 829 823 843 867 856 812 682 589 386 246 54 4 0 0 0 0 0 0 0 0 0 0 0 0 0 0 0 0

GFSFLT1_con_mucape_042.txt.gz
CAPE
0 0 0 0 0 0 0 0 13 9 8 3 5 4 8 2 0 2 13 35 44 48 33 27 1 0 0 0 0 0 0 0
0 0 0 0 0 0 0 0 0 0 8 1 0 0 0 2 0 0 21 0 83 57 24 46 40 0 0 0 0 0 0 0
0 0 0 0 0 0 0 0 0 0 0 0 1 0 0 0 0 0 6 95 48 134 94 66 39 5 1 0 0 0 0 0
9 0 0 0 0 0 0 0 0 0 0 0 0 0 0 0 0 0 0 66 131 122 210 108 57 62 26 13 19 5 10 4
9 0 0 0 0 0 0 0 0 0 0 0 0 0 0 0 0 0 0 13 86 129 159 151 103 92 28 47 45 21 27 8
18 0 0 0 0 0 0 0 0 0 0 0 0 0 0 0 0 0 0 0 21 162 215 82 148 136 114 62 44 22 23 2
83 25 2 0 0 0 0 0 0 0 0 0 0 0 0 0 3 0 0 0 21 114 180 33 104 143 103 72 37 25 28 13
166 96 91 13 0 0 0 0 0 0 0 0 0 0 0 0 1 13 0 9 58 101 158 89 138 112 106 85 63 42 35 25
252 161 145 84 34 0 0 0 0 0 0 0 0 0 0 0 1 31 53 36 75 123 126 199 199 128 115 91 107 75 54 37
318 251 236 177 97 85 25 4 0 0 0 0 0 0 2 34 79 84 113 49 116 228 270 165 201 93 101 97 106 89 76 55
301 280 290 273 259 170 137 100 46 23 0 0 1 37 40 40 61 86 119 62 122 221 157 82 63 112 104 105 83 73 61 58
214 246 321 323 307 282 212 186 152 150 117 69 70 16 54 113 114 139 136 116 83 98 53 104 95 72 115 95 94 67 60 43
67 109 264 330 361 330 296 346 296 287 230 140 78 113 130 161 147 124 191 7 40 0 55 92 155 172 167 206 245 145 57 63
191 213 191 247 300 322 320 356 406 405 317 297 248 299 221 269 280 286 229 155 96 22 59 333 545 195 152 120 128 84 23 3
114 177 174 163 219 349 402 532 568 519 371 336 311 124 227 396 413 352 104 208 272 185 297 581 202 124 53 13 5 2 1 0
92 152 188 280 594 825 860 665 702 659 662 603 443 329 303 391 461 466 344 162 389 482 367 111 57 4 4 6 7 6 12 4
6 188 203 355 644 815 1002 1011 1016 967 949 745 644 684 619 557 471 468 574 370 270 109 67 5 3 7 6 7 6 2 4 4
0 131 236 428 612 667 752 871 929 911 1013 972 718 635 527 533 399 249 143 79 42 0 2 4 4 5 6 6 5 5 3 3
0 46 221 447 586 613 620 659 706 792 631 518 481 467 391 349 264 112 57 1 0 0 0 0 0 0 0 0 2 0 0 0

GFSFLT1_con_mucape_045.txt.gz
CAPE
0 0 4 5 6 19 6 15 25 18 1 5 6 69 65 76 73 88 79 67 96 120 83 111 85 40 7 0 0 0 0 0
0 0 0 0 0 6 26 0 6 3 3 4 1 14 13 17 11 23 65 73 96 101 93 111 97 58 5 0 0 0 0 0
0 0 0 0 0 0 0 10 0 8 8 7 3 7 8 12 0 0 1 15 18 35 55 48 60 22 0 0 0 3 0 0
0 0 0 0 0 0 0 0 4 0 1 0 3 1 3 2 1 0 0 0 8 48 51 79 63 43 51 10 17 19 3 11
8 0 0 0 0 0 0 0 0 0 0 0 0 0 0 0 0 0 0 0 6 78 121 133 128 191 70 54 33 38 49 40
62 8 0 0 0 0 0 0 0 0 0 0 0 0 0 0 0 0 0 0 0 11 130 189 164 223 149 95 78 69 51 41
133 111 5 0 0 0 0 0 0 0 0 0 0 0 0 0 0 0 0 0 0 0 0 28 160 203 194 168 133 87 45 54
171 141 110 24 0 0 0 0 0 0 0 0 0 0 0 0 0 0 0 0 0 0 0 10 71 171 116 65 97 87 66 53
239 143 185 85 43 0 0 0 0 0 0 0 0 0 0 0 0 0 0 0 0 0 1 1 10 83 79 63 88 82 52 46
176 183 171 212 122 103 8 0 0 0 0 0 0 0 0 0 0 0 0 0 0 1 11 56 38 50 12 45 84 1 37 72
165 210 215 260 255 209 129 82 43 0 0 0 0 0 0 0 0 1 0 3 15 46 65 85 79 94 94 144 115 99 87 96
101 198 256 281 315 276 249 216 200 181 157 45 18 0 0 0 0 0 6 6 33 74 87 89 75 67 90 129 76 78 77 102
126 195 247 269 324 305 288 310 286 254 204 128 113 45 1 0 1 1 10 24 41 39 59 57 0 0 44 75 57 22 74 98
18 183 189 245 279 262 294 375 391 342 270 247 197 177 103 42 42 20 13 82 74 90 69 52 23 34 36 58 227 178 183 145
0 15 43 89 140 172 245 339 387 377 326 305 288 262 212 156 103 93 154 131 168 150 120 45 39 50 43 343 280 202 156 81
0 36 71 84 98 157 232 280 319 310 346 393 374 417 344 255 236 260 163 296 392 305 208 154 122 321 200 207 80 36 11 5
0 20 30 82 145 195 256 280 336 394 402 374 443 537 399 343 341 285 407 517 496 444 116 254 336 294 252 50 39 2 6 7
1 0 3 78 112 204 381 504 507 460 441 487 645 535 506 458 350 298 205 288 296 311 214 285 285 139 52 1 3 8 1 8
13 5 1 27 124 353 521 629 609 638 704 744 688 623 516 543 484 348 322 231 317 290 197 107 59 8 6 5 3 4 6 6

GFSFLT1_con_mucape_048.txt.gz
CAPE
0 0 0 0 4 21 2 27 15 7 27 31 56 70 78 54 65 46 38 27 16 15 26 42 17 27 46 63 14 8 0 0
0 0 0 0 0 8 0 6 7 14 12 27 4 0 8 14 58 89 79 62 57 61 79 82 53 47 88 72 4 1 0 0
0 0 0 0 0 1 1 3 21 18 10 9 2 4 7 78 116 82 141 117 109 103 119 98 181 97 112 81 24 11 0 0
0 0 0 0 0 0 1 0 0 8 9 2 5 1 1 0 43 68 51 83 71 39 73 93 142 112 104 77 30 14 5 1
0 0 0 0 0 0 0 0 2 0 3 0 0 5 0 0 8 9 3 7 6 6 10 47 88 73 95 122 89 43 13 13
45 0 0 0 0 0 0 0 0 0 0 0 0 0 0 0 5 0 0 0 0 0 2 5 79 101 98 156 153 94 54 61
131 149 37 1 0 0 0 0 0 0 0 0 0 0 0 0 0 0 0 0 0 0 0 0 3 106 165 209 178 153 130 58
81 163 139 72 1 0 0 0 0 0 0 0 0 0 0 0 0 0 0 0 0 0 0 0 0 3 38 91 125 134 145 113
21 85 139 122 85 1 0 0 0 0 0 0 0 0 0 0 0 0 0 0 0 0 0 0 0 0 1 12 60 115 113 59
14 86 168 165 127 88 1 0 0 0 0 0 0 0 0 0 0 0 0 0 0 0 0 0 0 22 20 41 61 34 4 19
12 76 140 150 159 173 144 71 24 0 0 0 0 0 0 0 0 0 0 0 0 0 0 0 7 39 58 68 50 10 0 6
26 68 107 149 144 162 218 224 174 135 51 0 0 0 0 0 0 0 0 0 0 0 0 1 13 28 45 29 49 6 0 78
0 44 37 82 120 184 197 241 277 251 206 180 170 110 9 4 8 21 0 0 0 11 0 22 36 18 44 116 80 33 21 155
0 10 38 114 156 209 230 240 252 262 241 265 256 228 179 85 37 18 14 6 2 1 5 8 47 56 43 19 5 3 30 76
0 0 0 40 119 225 182 176 196 197 246 314 326 318 281 243 189 142 24 24 14 19 23 44 64 106 53 74 20 26 47 201
0 0 0 2 32 98 91 122 142 146 182 213 234 249 255 256 296 257 205 129 71 76 78 141 99 151 110 65 50 42 155 144
0 0 0 0 0 0 37 61 68 87 133 178 209 233 213 228 376 326 292 263 229 194 219 156 205 563 257 195 125 154 105 120
0 0 0 0 8 14 31 46 80 104 132 178 187 200 205 255 408 354 336 359 273 293 181 401 271 367 379 139 220 173 183 73
0 0 1 1 22 37 48 76 105 150 162 167 162 218 266 360 374 358 323 372 283 246 158 124 462 214 126 133 77 68 8 3

GFSFLT1_con_mucape_051.txt.gz
CAPE
0 9 1 8 4 0 2 21 5 18 7 8 8 6 11 15 52 58 55 43 25 17 29 41 28 26 26 59 51 7 0 0
0 0 1 0 0 4 0 7 9 0 2 0 8 7 0 0 93 75 77 77 65 58 34 15 18 7 47 69 65 46 7 0
0 0 7 0 0 0 3 0 14 7 15 13 1 4 4 3 21 60 86 91 64 81 84 53 38 39 32 52 67 40 25 11
0 0 0 3 0 0 0 0 20 3 7 3 2 4 2 1 37 51 37 71 67 115 146 146 102 114 37 51 75 53 29 7
3 0 0 2 1 0 0 0 1 16 1 3 18 2 7 0 7 6 59 60 70 116 183 136 90 134 129 114 92 71 43 18
10 18 0 0 3 0 0 0 0 3 10 6 5 3 8 6 8 1 29 27 33 56 62 111 141 119 112 82 58 61 112 83
27 66 46 1 0 0 0 0 0 0 1 0 2 4 4 0 2 3 1 24 9 10 7 65 104 114 99 57 61 75 92 148
0 28 108 54 3 0 0 0 0 0 0 0 0 1 1 0 0 0 0 0 0 0 5 25 29 31 73 90 40 78 95 102
0 0 39 126 54 6 0 0 0 0 0 0 0 0 0 0 0 0 0 0 0 0 1 5 5 0 11 47 75 57 27 11
0 1 12 88 103 70 12 0 0 0 0 0 0 0 0 0 0 0 0 0 0 0 0 0 0 0 10 14 27 41 38 55
0 0 9 45 100 94 92 39 0 0 0 0 0 0 0 0 0 0 0 0 0 0 0 0 0 1 0 2 21 23 29 37
0 0 0 24 78 126 117 131 106 53 0 0 1 0 0 0 0 0 0 0 0 0 0 0 1 8 32 38 44 38 39 12
0 0 6 12 46 96 127 127 171 194 158 129 40 0 0 0 0 0 0 0 0 0 0 0 0 7 36 21 10 51 40 22
0 0 0 25 17 27 70 104 154 160 191 221 205 175 127 129 32 14 0 3 1 0 0 0 1 0 0 4 17 8 42 46
0 0 0 8 9 39 88 120 159 172 173 196 208 216 224 240 236 241 217 167 72 29 7 2 0 0 5 8 22 46 78 8
0 0 0 0 1 7 35 80 122 111 84 113 191 203 204 206 200 190 188 193 209 174 57 12 11 6 12 41 67 72 162 71
0 0 0 0 0 0 12 42 55 73 36 49 87 118 135 144 154 165 161 233 244 217 166 53 35 27 57 95 75 92 123 18
0 0 0 0 0 4 9 33 34 25 29 32 43 55 89 110 139 143 165 290 296 284 241 197 187 136 154 126 158 151 220 359
0 0 0 0 2 16 16 13 11 28 49 49 56 69 72 111 113 138 203 291 300 285 288 233 213 283 239 69 71 116 149 89

GFSFLT1_con_mucape_054.txt.gz
CAPE
0 2 5 5 3 13 8 1 17 2 0 3 8 4 3 35 64 122 94 32 41 38 16 34 53 27 27 1 0 0 0 0
0 1 4 7 15 2 0 6 3 1 2 0 0 12 0 0 2 75 174 58 53 70 32 56 51 73 73 52 43 27 0 0
1 0 6 5 14 2 0 2 0 3 17 0 0 0 1 3 5 50 135 171 60 88 64 49 46 101 146 128 93 44 40 19
39 0 0 12 15 21 0 0 4 14 8 2 6 0 1 1 0 68 144 190 114 104 114 103 85 87 127 194 187 164 175 57
88 31 0 0 5 19 27 5 0 4 0 0 0 1 0 0 0 29 93 168 150 115 133 157 204 151 131 207 215 206 276 198
207 89 66 5 0 13 13 16 0 0 4 1 5 1 1 0 1 0 113 155 146 107 133 208 274 346 302 354 300 302 289 483
329 168 86 43 0 6 8 17 0 1 1 4 3 12 7 3 0 0 0 31 132 180 173 268 303 292 361 490 467 398 372 306
276 265 150 70 23 1 6 7 12 21 1 0 2 3 4 11 3 6 7 2 27 35 111 123 120 159 224 258 369 427 429 407
190 289 237 143 69 1 0 1 6 16 4 0 29 28 61 19 9 1 3 0 21 17 42 66 56 73 94 119 138 215 262 391
132 195 296 236 124 25 0 0 0 2 15 40 28 26 39 40 14 18 8 8 4 27 9 9 3 7 27 56 134 89 226 394
15 143 259 243 186 52 16 0 0 0 6 32 33 46 47 62 70 45 22 32 12 0 0 0 12 20 42 42 143 120 182 349
34 103 216 226 226 142 53 26 1 1 7 16 37 114 62 52 171 101 44 34 22 5 8 4 7 17 41 82 146 181 254 365
2 141 239 220 249 203 175 79 50 19 0 4 91 43 38 79 126 109 151 108 10 31 22 5 5 54 77 99 106 70 135 188
0 20 222 296 246 209 215 172 121 79 88 69 36 64 95 175 108 15 2 3 6 4 2 1 1 1 3 20 24 117 181 106
0 0 45 213 293 270 267 233 193 139 127 127 142 157 148 162 71 33 45 15 0 0 0 0 1 0 0 2 7 40 97 81
0 0 0 27 224 326 323 262 218 150 121 115 148 196 178 185 176 158 170 155 149 157 169 150 99 1 11 9 44 49 56 28
0 0 0 0 16 206 297 353 250 157 137 141 98 95 133 180 200 183 163 165 164 169 168 198 197 169 44 52 46 25 30 19
0 0 0 2 2 27 125 300 343 229 153 112 84 61 61 91 112 110 119 112 106 127 151 187 212 212 209 168 62 38 25 97
0 0 0 0 0 0 8 54 229 364 209 139 90 67 63 60 56 46 51 82 152 232 192 241 233 223 184 180 178 230 157 121

GFSFLT1_con_mucape_057.txt.gz
CAPE
7 0 0 57 15 0 0 0 4 1 0 0 21 26 4 31 73 110 79 59 84 117 102 187 77 40 15 6 60 8 10 1
0 11 0 14 12 22 22 0 0 0 0 0 0 5 1 14 83 89 107 69 72 110 69 190 169 98 69 135 13 3 1 1
36 43 0 17 9 22 5 1 4 2 1 0 0 1 0 7 27 120 122 145 63 95 110 78 156 151 261 227 168 34 5 2
184 58 42 0 17 18 0 0 7 0 2 21 0 20 2 2 0 29 108 163 72 78 119 144 167 239 327 333 239 200 92 61
249 125 129 17 2 11 19 0 0 0 3 2 0 0 0 0 0 3 45 137 114 52 130 253 293 229 352 426 319 297 341 253
319 259 171 93 24 11 17 3 1 1 0 0 0 0 0 4 0 0 67 130 75 101 193 296 327 314 371 405 440 463 378 367
299 298 245 181 36 35 16 27 0 0 0 0 0 0 1 1 0 0 11 93 154 125 186 241 346 468 498 437 436 529 549 474
277 365 304 238 105 34 6 10 27 1 1 0 0 0 5 2 3 4 0 0 30 121 198 182 324 414 453 252 379 590 626 648
230 411 430 281 250 75 9 2 8 24 0 0 0 0 4 1 8 8 4 3 2 62 212 305 399 481 525 403 451 457 271 387
106 235 490 494 357 210 58 1 0 8 23 2 0 0 1 23 38 49 30 12 22 54 125 249 323 360 375 368 458 487 420 566
27 142 327 545 497 365 169 29 0 5 8 20 21 8 2 58 32 119 90 31 37 50 52 69 78 156 216 268 217 267 258 343
6 13 137 449 554 498 341 92 24 11 81 79 63 98 72 71 129 226 265 239 85 50 45 60 51 72 91 128 104 130 177 214
3 36 174 366 544 575 434 173 75 39 61 212 373 479 390 254 311 509 495 400 339 221 72 103 52 45 89 145 122 79 155 177
4 19 205 429 493 551 574 407 208 127 58 162 516 554 508 569 549 587 668 536 473 309 242 181 86 107 84 116 126 151 177 185
0 4 25 211 489 562 613 602 665 332 174 173 295 507 503 565 632 592 561 524 452 411 359 243 222 208 125 104 92 177 188 92
0 2 10 18 116 450 589 635 802 674 513 351 423 462 515 411 525 536 471 414 340 312 294 316 305 201 99 131 78 64 12 8
0 0 0 0 1 17 325 531 870 875 673 850 633 645 350 513 467 495 445 423 382 325 257 276 294 167 108 143 149 212 14 0
0 0 0 0 2 11 3 207 543 675 887 830 704 758 625 614 520 375 396 405 377 318 295 285 263 322 133 153 169 113 216 223
0 0 0 0 0 0 2 0 51 437 621 678 715 742 682 637 543 454 408 405 361 388 368 367 324 256 114 127 152 144 95 40

GFSFLT1_con_mucape_060.txt.gz
CAPE
31 1 0 66 0 91 3 0 2 0 4 0 0 0 24 16 4 10 19 16 38 7 41 24 34 39 29 10 5 4 3 2
42 28 0 39 0 20 0 0 0 0 0 0 0 0 5 3 3 1 40 39 34 56 43 57 32 14 3 23 36 13 7 0
82 51 0 38 6 3 13 0 0 0 0 0 0 1 3 2 1 0 2 38 41 30 50 60 73 119 102 50 15 25 5 0
112 112 21 31 20 6 7 0 0 0 0 0 0 5 2 0 0 0 4 17 3 15 58 91 96 118 84 71 73 49 0 0
211 144 114 2 24 1 3 4 0 0 0 0 0 0 0 0 0 0 0 79 30 32 62 79 70 47 126 140 139 127 104 2
260 200 189 46 28 1 1 6 0 2 0 0 0 0 0 1 0 0 0 59 121 39 54 104 67 42 46 100 150 165 154 152
227 304 201 181 16 27 1 2 7 0 0 0 0 0 0 0 1 3 2 11 93 99 49 68 112 123 74 109 158 178 168 225
174 345 214 237 79 55 1 4 8 12 0 0 0 0 0 1 0 0 4 1 13 65 43 42 79 80 126 159 146 164 250 174
47 305 324 281 169 111 13 2 4 4 8 0 0 0 0 1 6 8 6 7 2 3 22 15 47 61 87 177 170 148 128 161
35 310 466 309 286 107 32 0 6 5 4 12 0 0 0 0 3 7 9 10 5 2 32 36 19 35 90 130 126 118 104 117
36 87 529 440 391 227 126 9 0 0 4 5 0 0 0 0 0 0 0 0 0 7 8 56 55 47 83 132 134 82 100 107
5 84 157 543 485 382 199 82 10 0 0 5 3 2 2 0 0 0 0 0 0 0 0 3 10 44 56 60 53 61 78 74
17 19 170 290 568 515 416 231 76 15 9 0 2 7 8 0 0 0 1 0 0 0 0 0 0 0 5 14 17 16 26 30
0 9 157 270 476 560 589 432 273 86 47 52 3 2 5 4 0 0 0 0 25 12 0 0 0 0 0 0 5 4 3 0
0 0 0 2 328 542 598 699 393 284 80 60 98 53 30 11 29 14 18 50 22 43 36 6 0 0 0 0 0 0 0 0
0 0 5 2 0 12 255 566 756 417 271 112 66 145 151 169 142 105 87 78 137 93 83 42 32 20 0 0 0 0 0 0
0 0 0 0 0 0 0 40 682 804 500 386 332 120 148 200 210 200 225 172 145 183 165 114 86 45 46 41 19 13 8 22
0 0 0 0 0 0 0 0 3 215 791 658 532 420 237 207 214 192 223 233 213 162 132 131 107 86 95 80 63 51 60 73
0 0 0 0 0 0 0 0 2 0 67 611 774 670 590 438 302 219 222 222 200 171 131 94 75 88 104 132 103 88 72 60

GFSFLT1_con_mucape_063.txt.gz
CAPE
11 10 47 35 18 0 0 4 8 34 5 4 5 19 24 37 32 42 16 11 6 34 44 31 48 36 31 29 12 4 0 0
15 35 40 0 0 0 2 2 5 6 23 25 31 1 21 34 42 19 11 4 7 34 35 43 25 67 51 23 25 0 0 0
34 42 23 0 0 0 0 2 4 2 5 0 0 0 0 18 9 3 12 3 8 4 5 23 18 47 43 35 12 11 8 2
34 42 30 0 0 0 0 1 3 0 0 0 0 0 2 0 1 5 3 0 6 11 1 11 22 13 10 41 16 11 9 5
55 41 39 19 0 0 0 2 3 0 0 0 0 0 0 1 9 2 2 3 2 11 9 1 1 2 49 27 13 3 0 4
73 62 58 35 0 0 0 3 3 0 0 0 0 0 0 3 11 21 1 1 5 11 0 2 4 25 71 20 8 1 15 6
94 101 87 79 13 0 0 1 5 4 0 0 0 0 0 0 2 0 10 5 3 0 0 5 6 1 13 85 35 17 19 69
108 119 128 90 82 12 0 0 1 3 3 0 0 0 0 0 0 0 3 13 7 2 2 14 39 18 0 30 91 67 51 42
138 139 153 118 108 73 0 0 1 2 3 0 0 0 0 0 0 0 0 0 13 9 4 1 16 56 79 76 81 102 100 61
192 196 160 151 138 118 40 1 0 6 4 3 0 0 0 0 0 0 4 2 11 11 4 0 5 16 57 88 123 92 106 127
254 205 179 158 166 172 129 71 16 0 2 3 3 0 3 0 0 0 0 0 3 4 8 2 3 0 29 73 72 89 86 66
62 232 181 177 189 205 161 158 120 9 0 0 1 1 4 5 0 0 0 0 0 0 0 0 1 5 0 10 26 40 50 31
0 9 140 246 245 222 226 249 251 214 44 0 0 1 1 2 3 0 0 0 0 0 0 0 0 0 2 0 0 7 10 7
0 2 1 143 289 262 328 305 305 281 283 113 0 0 2 2 1 2 0 0 0 0 0 0 0 0 0 0 0 0 0 0
0 0 0 67 88 166 347 335 322 291 299 215 172 27 0 0 0 5 9 1 0 0 0 0 0 0 0 0 0 0 1 3
1 0 0 1 24 84 110 153 145 256 413 200 204 195 161 55 3 0 6 2 0 0 0 0 0 0 0 0 0 0 0 0
0 0 0 0 6 0 25 48 40 86 263 356 445 466 359 339 281 196 27 0 0 3 0 1 10 3 0 0 0 0 0 0
0 0 0 0 0 0 0 0 2 18 25 139 207 411 541 459 431 344 320 233 106 40 30 37 39 50 45 22 34 28 23 23
0 0 0 0 0 0 0 0 0 0 0 0 0 187 407 582 416 374 364 291 261 242 167 94 79 103 85 99 115 74 94 55

GFSFLT1_con_mucape_066.txt.gz
CAPE
57 61 98 80 14 0 0 1 30 55 43 7 8 1 48 44 44 31 45 64 49 28 18 0 0 0 0 0 0 0 0 0
73 54 101 61 0 0 0 3 6 6 13 19 23 12 16 41 18 21 37 7 13 32 26 8 2 0 0 1 0 0 0 2
86 91 75 28 6 0 0 0 13 2 4 5 2 2 14 33 50 34 33 6 3 28 17 12 19 2 2 7 3 1 10 16
93 104 71 28 6 0 0 0 4 46 6 6 9 10 19 23 14 40 9 6 10 8 22 10 36 49 2 10 17 15 0 17
110 115 77 33 8 1 0 0 2 3 5 1 0 0 0 0 4 3 4 24 12 15 23 46 32 59 50 45 45 6 0 21
124 122 101 40 19 0 0 0 1 4 0 0 0 0 0 0 0 0 19 12 10 10 21 46 41 78 55 40 14 20 0 14
121 136 106 61 30 7 0 0 1 2 7 1 0 0 0 0 0 1 3 5 4 6 23 51 45 10 13 9 0 32 13 28
126 140 101 83 47 43 12 0 0 1 2 5 6 0 0 0 0 0 9 5 6 13 6 26 19 14 12 29 21 27 32 8
127 132 104 106 66 47 50 0 0 0 1 1 0 0 0 0 0 0 8 4 14 7 4 2 6 4 2 0 88 51 17 6
114 137 138 131 104 69 66 9 0 1 1 2 0 0 0 0 0 0 0 1 10 12 12 6 7 3 14 7 9 48 65 34
117 190 175 164 130 91 89 78 19 1 0 1 1 0 0 0 0 0 0 0 0 13 17 17 11 5 12 43 46 28 15 16
101 138 187 167 165 152 144 165 139 104 20 0 1 1 1 0 0 0 0 0 0 0 6 8 11 7 1 1 17 29 29 24
186 219 224 267 203 204 195 187 189 169 197 128 0 0 2 2 1 4 0 0 0 0 0 0 0 0 0 0 0 0 6 19
82 193 281 317 320 293 234 215 171 182 188 194 169 72 0 0 0 1 2 3 0 0 0 0 0 0 0 0 0 0 0 0
33 79 123 211 211 234 155 177 198 145 180 182 225 200 102 65 12 0 0 1 4 0 0 0 0 0 0 0 0 0 0 0
0 1 24 82 73 72 75 54 56 79 55 94 173 146 132 105 88 82 54 0 0 2 2 4 0 0 1 1 0 0 0 0
0 0 0 0 0 0 13 20 34 40 33 52 124 223 159 184 237 236 152 95 80 43 0 3 13 0 0 2 1 0 0 0
0 0 0 0 0 0 0 0 0 0 0 1 20 78 103 108 170 145 183 371 313 207 186 139 90 9 0 0 0 0 0 0
0 0 0 0 0 0 0 0 0 0 0 0 1 0 9 58 83 117 119 126 186 194 235 294 221 230 268 155 44 7 0 0

GFSFLT1_con_mucape_069.txt.gz
CAPE
126 75 98 136 72 26 0 237 23 41 64 23 4 76 4 29 13 45 29 42 57 44 18 0 0 0 1 0 0 0 6 4
48 41 100 91 60 27 0 91 244 238 43 11 14 24 0 8 5 32 35 60 61 64 15 6 1 0 0 0 0 5 0 1
33 43 77 87 63 22 0 19 61 36 9 1 9 7 2 19 12 47 37 17 57 57 59 1 0 0 0 0 0 0 0 0
33 51 62 91 71 36 3 0 15 51 10 24 0 52 8 3 10 31 32 22 60 66 34 7 3 7 0 1 1 0 0 0
23 55 74 80 75 42 6 0 0 1 6 7 5 5 4 5 8 32 10 13 37 17 39 26 1 5 12 25 20 6 2 4
26 74 91 68 72 47 15 0 0 0 2 19 19 48 5 13 18 22 3 17 22 28 12 15 2 3 17 65 87 45 23 22
15 76 100 79 81 59 22 0 0 1 2 1 1 0 0 0 0 0 5 1 10 15 14 32 6 5 43 37 66 71 60 33
1 44 77 100 108 74 30 6 0 0 2 0 0 0 0 0 0 8 0 0 2 13 7 8 10 70 48 41 46 36 30 24
0 22 72 111 133 94 42 28 0 0 1 1 1 0 0 0 12 1 1 2 4 15 1 17 8 53 50 61 53 44 15 1
0 11 69 115 167 107 67 59 3 0 0 0 0 0 0 0 0 0 15 1 10 15 7 1 4 14 2 8 30 34 60 4
5 23 69 148 153 83 70 61 15 0 0 0 0 1 0 0 0 0 0 3 4 8 12 4 4 6 14 12 7 13 8 0
19 25 55 199 161 117 113 82 81 77 62 10 0 0 0 0 0 0 0 0 1 5 10 8 9 4 6 6 5 1 1 12
69 69 159 178 145 131 137 135 138 143 140 126 107 6 0 0 0 0 0 0 0 0 2 5 9 6 8 8 5 17 25 6
161 158 214 160 155 170 174 167 180 200 175 147 177 162 122 31 1 2 0 0 0 0 0 0 0 2 0 8 13 0 0 0
244 236 242 232 166 171 185 188 134 130 158 169 147 115 135 144 112 49 5 0 1 2 0 0 0 0 0 0 0 0 0 0
54 49 50 45 50 44 47 75 56 48 39 50 61 96 99 131 140 115 100 84 57 15 0 3 2 0 0 0 0 0 0 0
44 24 27 32 31 27 19 28 34 36 46 40 38 39 27 38 42 132 92 94 156 89 145 124 69 12 0 0 0 0 0 0
0 0 0 0 0 0 0 0 0 0 0 0 0 3 42 55 79 75 45 39 52 69 83 111 113 181 234 210 123 4 0 0
0 0 0 0 0 0 0 0 0 0 0 0 0 0 0 0 0 5 77 66 54 18 11 27 67 101 222 243 219 178 135 67

GFSFLT1_con_mucape_072.txt.gz
CAPE
353 221 172 124 268 203 251 360 433 44 0 63 58 50 5 83 18 9 18 55 56 77 22 82 58 2 16 0 0 0 0 2
205 202 207 123 271 174 90 23 260 4 1 146 17 1 27 10 5 34 48 4 46 50 79 83 19 0 0 0 0 0 0 0
61 109 209 167 223 128 78 35 48 59 3 58 4 0 47 7 55 60 43 27 17 51 66 67 0 0 0 0 0 0 1 7
19 67 103 146 153 97 59 7 36 45 37 243 40 0 2 8 42 35 59 30 44 56 52 43 0 0 0 3 0 1 0 12
18 21 33 112 117 97 69 27 35 1 55 21 2 0 0 7 3 21 54 44 36 38 42 14 21 5 0 0 0 0 4 0
14 20 14 63 97 84 75 39 4 1 38 9 6 7 0 12 3 1 41 42 54 39 13 26 34 1 3 0 0 0 15 6
1 14 23 44 72 84 84 51 9 1 13 4 6 37 5 1 1 8 22 25 9 47 35 8 7 12 2 1 0 2 59 37
0 7 14 30 53 84 76 76 30 2 1 4 4 7 8 6 4 2 4 7 10 0 19 20 15 5 5 1 1 0 40 54
0 0 4 39 68 89 86 100 54 1 0 1 4 5 0 0 2 0 0 0 1 3 14 8 19 12 16 3 0 4 42 48
0 0 10 37 68 88 89 90 53 0 0 0 1 3 0 0 0 0 4 5 0 13 25 10 25 25 16 10 0 16 0 19
0 2 5 31 55 64 112 69 36 0 0 0 0 0 0 0 0 0 10 0 0 13 26 27 41 39 9 22 1 26 15 45
0 7 11 23 30 47 145 69 80 46 19 0 0 0 0 0 0 0 2 0 0 3 11 35 39 23 14 0 18 16 9 14
3 0 0 4 31 91 133 136 128 117 127 131 97 17 0 0 0 0 0 0 0 0 5 5 18 25 16 14 29 32 36 29
92 66 26 37 101 119 98 169 155 176 144 135 141 145 103 45 0 0 0 0 0 0 0 2 11 14 4 0 8 10 14 22
152 169 156 150 176 163 160 153 172 163 171 162 149 122 114 149 118 28 2 0 0 0 0 0 0 0 0 0 0 0 0 1
139 146 135 152 130 85 74 76 58 35 39 38 45 68 61 69 70 71 129 176 81 97 17 1 0 0 0 0 0 0 0 0
26 71 89 75 73 51 8 0 4 36 51 36 16 20 28 76 31 36 61 77 49 162 87 91 162 162 87 24 0 0 0 0
8 28 44 29 19 8 4 0 0 0 3 0 0 0 0 2 12 9 6 26 25 27 23 32 35 49 64 62 63 69 104 105
0 33 5 1 0 0 0 0 0 0 0 0 0 0 0 0 0 0 1 1 2 6 16 4 3 8 0 4 16 21 38 28

GFSFLT1_con_mucape_075.txt.gz
CAPE
318 360 558 670 414 340 208 204 327 497 333 205 48 22 25 136 71 40 57 18 36 57 36 35 36 63 79 47 0 0 8 0
35 282 358 497 314 199 232 117 343 360 139 5 31 27 19 18 48 95 15 25 69 37 37 42 42 48 64 15 0 0 0 0
28 280 343 329 202 229 265 117 93 131 10 2 53 29 0 36 15 25 83 50 50 20 32 33 21 42 66 31 1 0 2 1
0 214 313 341 196 255 248 134 127 50 18 17 91 50 4 38 7 29 11 42 20 25 35 13 19 33 7 0 0 0 0 1
0 119 225 307 278 216 228 111 85 29 16 66 7 23 6 50 3 38 25 13 23 27 17 35 51 22 0 3 1 0 0 1
0 61 194 260 203 216 209 94 90 25 16 45 9 11 28 3 69 57 55 39 42 37 24 26 39 0 0 0 0 0 3 30
0 40 120 177 123 168 200 105 93 33 14 14 21 8 3 0 26 1 30 71 33 11 25 10 12 1 0 0 0 0 6 23
8 90 108 126 75 78 174 114 99 38 12 17 3 4 6 7 0 0 13 13 1 23 19 30 9 4 6 0 0 0 0 0
1 119 128 106 26 16 124 116 99 43 3 5 4 4 4 16 10 12 9 1 2 2 16 20 7 5 9 13 1 0 0 2
0 71 104 95 3 80 71 118 101 37 2 4 4 1 1 2 0 1 1 2 1 11 3 12 22 25 21 12 13 5 1 0
0 52 44 39 9 152 51 100 86 35 2 5 6 4 2 4 0 4 4 8 0 0 4 10 14 8 24 16 9 6 3 1
4 11 27 10 11 216 97 120 88 13 0 1 11 8 5 0 0 3 1 1 0 0 7 16 7 7 32 30 1 6 4 5
4 17 42 40 183 186 100 138 120 42 14 0 0 9 9 2 0 0 0 0 0 0 3 6 29 37 27 39 1 5 3 2
55 8 25 128 130 55 161 168 159 137 81 93 71 36 2 0 0 0 0 0 0 0 0 0 2 0 2 3 6 18 5 9
87 20 164 149 103 110 186 159 145 145 118 134 134 115 60 53 2 0 0 0 0 0 0 0 0 0 2 3 4 8 18 16
132 122 69 60 98 146 167 156 150 134 91 87 89 120 101 72 28 30 3 3 2 0 0 0 0 0 0 0 0 0 2 0
222 232 153 186 192 346 104 78 45 6 3 3 9 36 49 54 76 72 54 25 14 13 8 4 5 2 1 4 3 6 5 2
50 27 36 56 110 114 73 51 26 2 0 6 26 6 0 0 3 11 16 45 60 116 43 117 129 6 5 0 2 3 5 8
0 1 14 12 4 35 8 10 26 7 0 0 0 0 0 0 0 1 1 2 2 5 3 4 3 3 2 1 0 3 5 19

GFSFLT1_con_mucape_078.txt.gz
CAPE
0 168 843 1300 1516 1752 1470 840 851 652 440 151 317 151 56 57 119 121 35 70 91 75 161 28 33 26 6 125 194 173 180 165
0 113 848 1270 1569 1699 1396 810 710 492 293 170 178 210 81 21 59 46 91 45 27 96 48 43 15 17 20 43 172 175 150 150
0 161 892 1267 1508 1586 1278 926 512 392 264 210 179 19 50 107 75 49 85 185 90 3 40 12 34 15 23 97 169 154 148 134
0 128 827 1164 1443 1516 1187 931 849 518 441 184 317 38 44 52 41 22 53 221 30 27 32 50 21 12 7 75 150 166 110 124
0 5 533 994 1265 1394 1165 1009 576 645 441 207 158 28 4 43 20 2 32 20 35 26 29 35 14 24 33 54 90 163 147 112
1 6 162 693 1139 1305 1210 981 514 519 290 133 116 31 38 54 17 0 10 7 8 14 5 47 11 12 90 161 118 138 117 109
0 0 209 600 1045 1214 975 719 341 392 305 150 62 12 43 111 26 30 34 18 11 17 39 38 22 9 51 76 26 38 80 81
1 139 337 670 1039 654 395 560 194 149 179 81 70 66 66 31 64 15 53 6 24 14 23 10 33 43 38 48 22 20 32 64
0 282 397 612 861 399 178 313 132 118 80 51 69 39 11 16 49 91 78 32 43 49 23 10 8 11 9 7 0 1 2 25
64 137 535 632 708 466 161 217 148 135 38 17 88 56 41 28 26 7 12 7 8 21 1 7 17 4 2 0 6 0 1 0
92 269 449 594 249 198 201 186 157 126 57 10 7 30 35 18 0 1 29 31 30 34 0 6 2 20 1 2 8 0 0 0
136 206 229 180 172 77 153 136 164 138 92 4 7 5 22 15 2 0 8 3 0 3 0 12 8 3 3 7 2 2 0 9
30 7 18 72 87 78 250 145 174 142 62 7 8 11 26 34 24 4 5 17 5 0 0 0 5 7 0 10 1 8 11 0
37 16 8 1 21 130 224 164 133 114 37 2 9 7 5 6 23 30 33 20 7 0 0 0 3 9 12 7 18 34 35 18
22 32 9 20 66 97 190 157 118 124 57 57 17 1 4 5 13 22 25 27 28 3 0 0 0 6 11 39 53 64 51 44
186 54 26 69 171 158 216 146 120 123 112 137 130 73 47 4 11 8 8 17 26 33 35 28 33 1 2 3 19 38 40 39
72 157 105 153 110 107 174 160 154 108 79 114 117 128 116 138 52 74 14 8 14 15 17 14 10 0 0 0 0 0 2 7
176 198 90 146 117 130 229 166 144 54 34 12 0 1 22 69 139 217 184 95 32 30 7 7 9 5 3 2 5 7 29 74
69 111 107 121 204 222 188 127 54 24 30 26 0 0 7 10 4 2 17 31 25 48 33 33 38 64 42 43 17 40 33 19

GFSFLT1_con_mucape_081.txt.gz
CAPE
0 0 12 234 1065 1817 2221 1982 1856 1654 1234 1022 737 553 653 538 509 297 432 426 168 334 109 42 46 26 52 19 75 188 146 119
0 0 10 518 1369 1949 2211 1947 1772 1463 1125 888 656 688 414 273 161 74 84 169 344 353 62 38 39 33 31 25 58 143 137 106
0 0 5 835 1484 1942 2125 1805 1610 1334 1041 717 494 460 575 421 290 187 48 61 186 33 55 26 17 33 44 30 56 92 153 113
0 0 15 982 1390 1970 2029 1751 1448 1184 937 658 432 174 295 210 298 372 143 269 242 192 27 49 62 33 22 14 13 78 104 106
0 0 37 890 1318 1787 1955 1747 1430 1183 946 611 454 346 107 312 223 251 200 146 255 142 31 35 23 17 17 2 47 76 89 116
0 0 0 661 1254 1739 1890 1693 1464 1181 1030 848 534 298 285 274 130 149 48 30 0 12 18 2 37 43 27 19 38 80 114 120
0 0 0 407 1095 1856 1790 1688 1463 1239 1187 791 471 300 266 325 158 126 17 12 2 2 26 11 17 31 11 21 41 107 141 162
9 0 20 178 974 1644 1725 1641 1198 1256 1047 700 383 287 323 95 210 107 30 24 5 3 2 13 22 7 21 29 58 103 138 148
408 66 110 460 984 1508 1579 1519 990 1123 1016 679 347 280 270 292 237 93 47 12 47 8 8 30 28 19 14 33 98 128 123 171
623 205 556 723 1219 1289 1166 1171 672 793 846 595 261 236 132 102 90 121 182 116 44 4 23 4 19 17 11 13 18 41 105 101
282 430 721 886 1182 845 813 757 784 523 623 424 156 172 65 108 100 37 10 17 28 60 30 5 12 9 15 27 0 14 0 0
310 551 789 867 794 497 810 725 672 550 178 137 226 166 80 66 56 33 16 44 42 19 67 33 14 0 6 4 2 4 0 0
356 364 666 500 446 272 686 366 259 314 209 90 29 9 11 27 22 24 29 28 26 15 8 8 3 0 0 1 3 15 20 1
306 286 255 157 52 134 325 248 114 211 156 93 23 13 36 17 7 8 8 8 3 8 6 1 6 2 14 2 14 14 3 8
271 285 190 50 17 121 267 257 137 163 126 113 19 5 14 19 8 35 31 20 5 6 19 8 1 0 4 17 1 10 13 44
238 147 90 42 14 64 227 294 189 131 161 82 7 0 4 2 6 6 3 12 4 12 5 0 9 7 17 28 46 23 48 65
124 216 120 76 66 120 241 278 244 167 141 66 45 25 4 7 8 9 5 3 16 10 6 0 0 6 1 0 0 10 37 2
167 254 119 117 139 137 247 261 289 206 128 163 230 185 95 79 32 32 25 11 11 10 11 5 4 1 6 0 0 0 0 0
11 145 139 211 183 184 304 265 323 273 152 413 146 115 71 50 40 94 308 227 109 120 53 39 26 32 32 42 27 42 41 53

GFSFLT1_con_mucape_087.txt.gz
CAPE
0 0 0 0 0 678 2124 2240 2211 1934 1784 1396 1152 792 1148 1223 1097 974 1025 850 710 550 386 283 193 92 84 39 11 20 49 26
0 0 0 0 0 1651 2010 2185 2132 1836 1530 1459 1178 608 1627 1068 818 849 828 736 594 434 323 167 82 48 63 51 35 31 39 23
0 0 0 0 20 1897 2046 2165 2123 1791 1519 1388 1239 787 534 577 752 606 562 493 431 374 254 158 103 74 29 34 8 26 37 27
0 0 0 0 907 1953 2142 2170 1996 1846 1543 1350 1279 416 443 435 387 186 202 270 286 253 194 107 80 39 6 18 27 26 28 35
0 2 0 351 1949 2125 2150 2065 2023 1766 1521 1350 859 554 517 389 236 208 115 103 220 232 137 66 64 46 40 39 28 11 10 0
0 2 0 363 2027 2233 2077 2050 1925 1607 1437 1293 765 667 648 437 197 254 214 114 99 80 111 74 116 78 61 46 13 15 30 2
58 56 9 75 1697 2115 2102 1999 1824 1635 1390 1187 1010 695 545 445 209 214 168 123 123 110 114 79 61 52 46 53 24 18 8 14
159 115 59 5 946 1878 2073 1930 1671 1604 1487 1207 1024 688 453 277 336 241 160 87 184 315 37 60 66 68 55 13 37 14 10 0
227 184 236 111 147 1614 1970 1848 1560 1514 1355 1142 1002 659 455 286 251 186 60 67 32 7 0 2 14 9 20 12 34 37 23 21
95 156 415 592 541 1542 1807 1801 1569 1415 1191 1153 965 750 525 328 184 140 79 37 19 20 16 11 7 15 6 6 32 38 25 18
32 47 186 645 731 664 1117 1318 1289 1213 1102 1104 888 804 418 251 277 181 86 14 11 8 30 33 11 15 25 19 23 27 7 15
25 63 167 156 226 220 227 451 787 1174 1177 979 870 752 204 329 364 162 105 43 15 4 13 12 12 6 26 27 13 12 22 6
6 32 88 72 126 200 410 643 777 1135 994 831 565 600 368 140 329 111 77 98 17 11 13 18 21 1 11 22 12 36 15 23
0 0 19 118 113 280 293 532 771 615 672 732 474 300 147 164 173 74 36 29 13 26 22 2 10 9 4 10 11 19 3 0
2 4 1 47 36 50 101 378 502 678 549 475 655 122 80 91 67 43 12 3 11 15 20 21 5 1 11 3 19 9 5 15
4 8 9 6 47 52 103 313 282 525 570 856 363 162 58 35 28 9 6 3 3 10 1 5 8 0 12 10 2 21 20 12
0 8 16 15 88 31 17 183 500 356 395 424 346 91 103 73 23 10 18 4 5 5 2 3 8 7 0 10 13 18 23 9
0 0 8 29 21 48 125 93 212 188 267 145 243 183 41 86 47 0 5 6 9 5 5 6 4 5 1 2 1 14 14 13
0 0 0 8 5 24 74 18 134 168 174 188 135 53 100 56 57 3 8 7 6 7 7 4 4 3 4 3 3 1 17 30

GFSFLT1_con_mucape_090.txt.gz
CAPE
0 0 0 0 0 85 2132 2286 2458 2506 1853 1784 1563 1683 1717 1456 1425 1324 1173 1017 983 910 705 612 542 377 222 257 60 68 57 58
0 0 0 0 0 608 1761 2164 2214 2368 1777 1740 1338 1248 1417 1467 1811 1295 1056 1010 925 852 634 667 582 416 234 158 69 63 37 56
0 0 0 0 0 386 1868 2009 2099 2285 1864 1752 1458 1003 625 707 1126 1049 941 972 795 817 678 526 444 375 405 144 70 6 23 56
8 0 0 0 0 1330 1753 1804 1867 1833 1922 1565 1377 932 634 495 806 777 724 739 764 712 575 490 314 471 467 85 65 19 25 24
12 0 0 0 0 1050 1703 1754 1704 1724 1957 1657 1312 1030 546 282 370 626 552 559 552 482 428 277 122 279 105 119 96 59 30 14
28 11 14 29 509 1429 1698 1725 1649 1775 2001 1647 1358 1090 696 259 340 507 370 187 316 339 273 231 128 81 76 118 137 11 39 21
99 105 68 185 1689 1793 1694 1683 1605 1844 1827 1583 1429 1147 601 372 373 298 201 165 171 214 288 257 272 206 88 129 72 36 45 5
181 204 205 123 1236 1907 1722 1567 1613 1795 1702 1483 1347 971 524 523 400 312 227 274 190 138 128 110 49 32 136 88 97 69 48 24
52 154 300 283 396 1669 1566 1277 1485 1734 1599 1383 1103 750 650 557 487 273 196 212 194 149 100 96 174 133 49 42 66 67 21 2
22 84 257 532 272 969 1341 1197 1247 1507 1463 1179 975 910 705 451 314 371 256 171 251 44 36 103 86 74 31 70 43 15 12 4
12 58 108 264 500 628 1164 994 1138 1206 1166 1085 925 824 642 454 373 337 222 113 162 41 9 23 31 33 12 16 19 13 11 35
0 46 47 85 124 335 352 436 652 692 711 860 909 672 667 477 360 182 153 98 47 0 14 51 40 31 8 27 5 12 13 32
0 0 36 72 72 93 98 67 207 140 444 677 703 454 467 430 257 248 141 133 38 46 12 16 14 9 20 23 16 8 19 22
0 0 1 48 76 178 70 1 119 45 173 540 549 596 321 256 150 201 198 107 49 67 13 17 23 21 9 15 22 10 7 13
0 0 0 1 52 93 43 198 210 161 180 425 474 459 252 156 157 127 54 81 48 35 19 15 6 17 12 7 7 0 36 45
0 0 1 1 2 3 19 53 157 270 263 92 333 249 320 153 54 58 45 38 8 5 30 10 9 2 5 10 5 3 1 26
0 0 5 7 1 3 1 8 110 180 118 142 221 287 412 71 28 12 14 3 14 8 7 6 8 0 5 17 19 14 10 12
0 0 0 0 7 6 12 17 27 93 161 139 96 153 185 140 25 29 19 0 9 7 7 7 25 6 5 12 8 5 30 7
0 0 0 0 1 8 25 32 34 30 85 233 81 177 64 105 38 6 8 6 5 11 8 7 5 8 26 0 4 10 3 13

GFSFLT1_con_mucape_093.txt.gz
CAPE
0 0 0 0 0 0 652 2200 2418 2610 2569 2078 2032 1990 1853 1974 2092 1843 1376 1269 1125 933 829 638 522 574 426 429 262 73 5 4
0 0 0 0 0 0 84 1971 2202 2322 2355 2103 1911 1814 1815 1827 2052 2084 1647 1330 1130 995 901 627 515 520 484 371 213 147 10 38
0 0 0 0 0 0 25 1671 2043 2162 2109 2138 1759 1657 1672 1520 1729 1786 1496 1319 1112 1011 888 639 1025 465 500 395 253 294 57 63
0 0 0 0 0 0 653 1486 1918 1956 1943 1939 1774 1474 1277 990 1324 1331 1420 1225 1008 928 832 412 404 503 606 671 431 182 33 60
0 0 0 0 3 15 652 1575 1804 1864 1840 1777 1669 1337 1033 937 1235 1084 1257 1094 1012 927 703 650 573 413 502 592 507 298 71 37
17 25 94 41 88 344 465 1667 1702 1702 1648 1593 1662 1395 940 703 522 593 1048 923 835 786 690 610 543 394 392 711 593 141 54 51
28 44 208 115 260 1144 917 1648 1690 1487 1361 1445 1738 1447 970 773 520 409 723 666 629 625 570 358 313 288 81 387 337 174 209 58
1 41 122 196 256 1264 1699 1756 1564 1299 1162 1338 1456 1379 1146 961 555 274 516 373 334 527 300 281 371 142 97 263 187 205 157 59
0 17 83 267 176 564 1824 1995 1580 1385 1063 1185 1449 1519 1280 948 577 276 306 187 159 196 537 311 157 180 234 184 195 125 73 77
0 44 54 138 216 449 1016 1811 1477 1294 1160 1071 1052 1114 1121 774 400 258 236 230 350 422 204 149 115 224 243 169 236 102 100 91
0 22 48 104 138 328 568 1245 1149 805 693 639 816 967 783 412 368 330 219 208 209 237 182 94 75 178 195 85 42 37 70 37
0 4 49 90 118 191 302 444 744 438 554 486 570 626 583 374 332 220 262 232 189 126 48 34 34 22 32 39 27 18 7 5
0 0 4 127 94 78 120 182 229 332 308 331 343 506 341 225 279 253 228 168 78 29 1 13 37 25 14 22 3 6 26 14
0 0 11 18 96 102 80 64 77 114 111 81 228 328 303 298 282 203 166 110 64 33 14 26 24 31 32 41 20 16 9 26
0 0 0 4 37 74 69 62 3 1 49 38 125 254 330 207 188 164 122 117 53 21 11 8 9 27 47 29 16 2 28 28
0 0 0 1 2 2 72 22 67 9 17 0 0 154 185 115 236 145 111 34 41 40 19 4 18 13 24 5 6 3 1 5
0 0 0 2 10 15 13 17 13 96 83 0 41 1 125 81 207 150 22 12 10 9 9 10 27 12 7 9 9 6 6 1
0 0 0 0 0 12 8 14 18 57 15 20 4 19 64 100 154 28 24 0 0 9 6 5 11 3 9 4 22 27 19 23
0 0 0 0 0 1 4 12 6 23 53 21 16 21 22 57 74 7 2 0 2 0 0 1 4 10 31 17 20 11 15 1

GFSFLT1_con_mucape_096.txt.gz
CAPE
0 0 0 0 0 0 0 266 1733 2064 2083 2121 2024 1680 1334 1193 993 972 1390 1405 965 785 835 716 746 700 615 229 281 165 148 19
0 0 0 0 0 0 0 13 1569 2065 2217 2213 1969 1973 1718 1481 1309 1170 1096 1545 978 1100 1022 830 853 520 924 784 318 40 125 97
0 0 0 0 0 0 0 0 885 2043 2026 2032 1905 1866 1859 1700 1554 1371 1445 1396 1216 1248 1123 854 742 803 791 643 425 105 148 63
0 0 0 0 7 0 0 0 266 1793 2018 1968 1825 1696 1557 1826 1581 1314 1111 1420 1487 1320 1167 915 937 414 592 460 478 447 129 98
0 0 0 0 52 3 0 13 0 1709 1994 1851 1559 1564 1286 1242 1328 838 524 790 1416 1382 1181 1112 863 207 505 186 570 328 359 108
0 0 0 0 21 42 1 115 45 1490 1918 1719 1503 1488 1372 1244 1176 342 185 509 1015 1332 1067 797 700 229 382 247 254 419 405 159
0 0 0 0 30 97 92 485 541 1628 1760 1591 1345 1307 1393 1302 1125 574 319 842 753 1047 1167 725 477 494 503 271 251 545 541 203
0 0 0 0 45 138 189 991 964 1621 1553 1598 1287 1265 1285 1241 1044 959 887 904 598 1219 1173 864 708 538 435 226 237 130 279 263
0 0 0 0 30 149 183 834 1248 1703 1936 1797 1393 1305 1202 1159 991 692 571 534 400 915 706 572 568 228 149 179 78 54 163 183
0 7 2 0 31 113 219 616 1218 1596 1432 1331 1349 1321 1227 1211 916 469 390 357 384 520 662 569 255 154 138 170 93 106 263 54
0 0 0 24 48 79 155 386 803 1050 1305 928 1325 1215 1038 805 469 348 298 210 259 218 112 398 320 204 181 173 207 199 77 125
0 0 0 9 75 76 105 350 643 805 1305 589 847 777 496 345 380 243 89 113 138 357 438 317 304 204 88 128 108 126 76 29
0 0 0 4 115 88 87 81 308 716 533 391 374 232 259 190 274 119 60 74 124 150 198 248 118 45 24 10 49 18 5 8
0 0 0 0 51 123 113 107 146 434 337 216 229 207 231 230 273 88 62 84 129 120 81 54 52 28 1 23 15 13 21 13
0 0 0 0 2 81 66 96 95 69 77 89 82 139 103 235 116 112 112 113 89 56 55 83 13 12 11 22 19 21 13 0
0 0 0 0 9 3 23 30 60 14 0 2 5 97 58 58 151 145 175 127 58 45 49 11 6 5 1 12 5 2 35 6
0 0 0 0 1 12 15 8 15 6 12 0 13 1 3 48 76 148 197 141 58 30 39 7 3 6 12 12 0 2 4 1
0 0 0 0 0 0 14 7 15 13 25 44 4 0 0 37 0 89 153 108 29 19 24 36 0 5 9 22 5 0 9 12
0 0 0 0 0 0 10 1 8 8 17 0 0 1 0 0 33 102 146 117 16 6 14 27 22 6 3 25 16 11 9 7

GFSFLT1_con_mucape_099.txt.gz
CAPE
0 0 0 0 0 0 0 0 0 257 1838 1998 2023 1762 1777 1754 1430 1129 1311 1328 1573 1739 1317 908 737 563 405 728 231 77 119 129
0 0 0 0 0 0 0 0 0 0 1807 1843 1485 1692 1559 1757 1601 1260 1213 1042 1187 1257 912 908 694 497 388 700 235 134 128 88
0 0 0 0 0 0 0 0 0 0 527 1860 1870 1472 1783 1826 1604 1273 1220 943 952 1086 1043 809 792 612 659 326 410 133 194 71
0 0 0 0 0 0 0 0 0 0 6 1657 2001 1804 1816 1997 1570 1423 1288 1060 1019 1370 1133 937 871 683 533 408 512 291 217 80
0 0 0 0 0 0 0 0 0 0 1 1186 1846 1508 1499 1750 1811 1450 1517 1149 939 951 1016 863 959 752 603 697 161 80 322 84
0 0 0 0 0 0 0 0 0 0 45 872 2113 1716 1990 2033 1890 1369 1373 1274 1035 433 1 353 790 824 738 302 110 259 201 198
0 0 0 0 0 0 0 21 25 57 357 953 1918 1802 1840 1843 1538 1324 1426 1100 619 98 57 346 849 962 757 393 208 202 186 368
0 0 0 0 0 0 0 45 71 359 640 1438 1798 1708 1683 1749 1559 1332 1168 665 181 135 331 636 881 854 797 383 148 246 147 292
0 0 0 1 2 1 8 76 197 624 905 1571 1547 1485 1568 1570 1505 965 807 592 538 361 439 709 830 566 347 510 166 258 171 153
0 0 0 0 0 5 33 88 194 592 1137 1523 1313 1076 1046 1174 1290 1154 909 557 388 388 477 649 651 598 543 399 279 210 166 254
0 0 0 0 4 12 41 59 207 509 1046 1306 1043 1060 774 700 919 757 680 463 316 236 442 558 908 704 513 220 99 181 107 100
0 0 0 0 0 35 49 76 128 504 1141 795 937 686 941 1067 1013 934 375 136 25 168 359 874 579 480 251 181 157 144 117 113
0 0 0 0 0 76 87 105 114 189 445 354 617 693 482 548 504 364 179 50 51 151 214 226 220 267 301 229 150 206 124 126
0 0 0 0 0 68 92 121 120 214 360 352 433 330 200 224 158 187 139 67 19 95 155 189 141 144 209 76 69 39 16 19
0 0 0 0 0 0 3 53 68 137 154 132 194 214 142 195 213 189 117 35 30 71 70 69 64 81 62 32 23 9 20 33
0 0 0 0 0 0 2 2 3 15 12 30 4 53 98 81 141 226 94 60 45 69 40 41 38 41 31 84 41 18 11 7
0 0 0 0 0 0 11 0 0 6 10 0 0 4 29 29 75 28 29 77 107 12 32 30 42 8 3 2 4 11 4 9
0 0 0 0 0 0 0 2 0 7 12 1 4 0 0 0 0 2 35 87 86 60 19 12 38 4 4 10 7 2 2 3
0 0 0 0 0 0 0 0 0 0 0 0 4 1 0 0 0 0 32 50 34 100 7 2 11 0 0 14 18 6 6 1

GFSFLT1_con_mucape_102.txt.gz
CAPE
0 0 0 0 0 0 0 0 0 0 0 60 1119 1461 2335 2335 2169 1950 2040 2386 2164 2036 1879 1702 1429 2102 1425 1156 1158 906 1146 573
0 0 0 0 0 0 0 0 0 0 0 0 567 1306 1934 1952 2259 2235 2087 2109 2123 1880 1729 1546 1748 1751 1143 1018 730 809 664 579
0 0 0 0 0 0 0 0 0 0 0 0 18 1027 1303 1596 1988 2631 2154 2087 2169 1831 1490 1294 1538 1228 1070 1113 758 436 643 468
0 0 0 0 0 0 0 0 0 0 0 1 0 726 1507 1762 1929 2402 2342 2214 1961 1702 1311 1273 1332 1464 1182 1141 775 492 265 241
0 0 0 0 0 0 0 0 0 0 0 0 6 159 1481 1703 1817 2146 2144 1834 1620 1438 1070 1078 1067 1218 955 1081 810 701 498 246
0 0 0 0 0 0 0 0 0 0 0 0 14 156 1833 1742 1921 1988 1969 1672 1504 1348 929 855 267 792 866 1040 1074 1132 908 382
0 0 0 0 0 0 0 0 0 0 0 11 0 481 1061 1979 1912 1850 1854 1775 1405 1314 1176 1180 809 661 705 589 800 1036 862 619
0 0 0 0 0 0 0 0 0 3 2 79 199 524 880 2249 1940 2074 1651 1972 1433 1370 1312 912 661 633 711 575 649 1124 861 607
0 0 0 0 0 0 0 0 0 57 170 292 498 1015 1388 2413 1999 1944 1644 1631 1789 1739 973 964 409 357 580 656 655 1220 972 926
0 0 0 0 0 0 0 0 0 25 249 697 735 2023 2095 2080 1829 1720 1594 2247 1904 1107 589 413 270 302 625 527 1027 1049 537 290
0 0 0 0 0 0 0 1 2 20 116 725 1107 1455 1586 1586 1678 1784 1193 1701 1210 965 642 636 463 394 602 623 766 436 220 312
0 0 0 0 0 0 0 0 35 49 136 673 1097 1034 1186 1253 1328 1081 1228 969 981 705 506 325 303 404 350 432 409 449 430 174
0 0 0 0 0 0 0 0 61 57 91 97 220 492 599 763 775 608 798 802 643 632 503 175 151 295 388 390 498 305 367 230
0 0 0 0 0 0 0 0 62 97 73 209 501 370 226 299 440 407 557 466 377 212 211 168 134 336 395 156 267 265 271 205
0 0 0 0 0 0 0 0 0 0 42 69 116 284 139 152 137 62 198 100 166 184 221 157 106 68 152 179 130 119 136 150
0 0 0 0 0 0 0 0 2 0 0 0 33 49 2 61 73 108 148 180 154 102 60 105 139 118 96 50 96 65 82 29
0 0 0 0 0 0 0 0 0 0 3 0 0 0 13 15 42 67 86 137 99 140 89 49 43 44 33 38 94 89 33 21
0 0 0 0 0 0 0 0 0 0 2 0 1 0 0 10 0 0 2 98 51 62 49 8 28 46 36 34 12 20 54 18
0 0 0 0 0 0 0 0 0 0 0 0 0 2 2 0 0 0 0 8 0 0 8 58 79 51 5 7 15 17 20 12

GFSFLT1_con_mucape_105.txt.gz
CAPE
1 0 0 0 0 0 0 0 0 0 0 0 0 113 1779 2181 2167 2759 2924 2867 2838 2932 2324 2359 2242 1806 2132 1653 1517 1611 1557 1623
0 0 0 0 0 0 0 0 0 0 0 0 0 0 507 1539 1905 2363 2997 2824 2983 2687 2383 2443 2197 1651 2033 1542 1632 1760 1283 1337
0 0 0 0 0 0 0 0 0 0 0 0 0 3 18 663 1683 2160 2644 2607 2678 2183 2308 2283 2157 1791 2059 1542 1828 1270 1217 975
0 0 0 0 0 0 0 0 0 0 0 1 0 0 17 218 1840 1971 2256 2785 2723 2176 2345 2381 2012 1849 1734 1505 1415 1046 932 810
0 0 0 0 0 0 0 0 0 0 0 0 0 6 0 14 1043 1675 2158 2448 2248 2326 2493 2120 1780 1810 1652 1509 1380 1224 1240 691
0 0 0 0 0 0 0 0 0 0 0 0 0 0 12 125 535 1823 2330 2565 2300 2347 2437 1943 1610 1694 1491 1311 1237 1359 1450 985
0 0 0 0 0 0 0 0 0 0 0 0 0 0 0 34 617 1616 2261 2636 2138 2064 1929 1732 1588 1802 1397 1280 1427 1672 1675 1362
0 0 0 0 0 0 0 0 0 0 0 3 0 0 0 0 253 1206 2242 2406 1923 1646 1641 1692 1633 1459 722 244 573 1215 1555 1399
0 0 0 0 0 0 0 0 0 0 0 0 7 8 1 0 176 1176 1856 2225 2021 1443 1597 1856 1377 1273 912 1103 1442 1557 1340 1147
0 0 0 0 0 0 0 0 0 0 0 2 192 261 368 303 1174 1749 2109 2270 1928 1506 1493 1377 1514 1512 1086 1094 815 981 1220 1430
0 0 0 0 0 0 0 0 0 0 2 3 456 522 737 1039 1487 1833 1959 2141 2040 1868 1648 1275 1148 812 970 875 435 762 993 1477
0 0 0 0 0 0 0 0 0 0 1 9 352 553 515 555 1130 1259 1676 1922 1723 1481 1340 1168 792 706 276 256 436 269 661 930
0 0 0 0 0 0 0 0 0 0 0 5 28 110 378 526 546 750 1316 1504 1409 1167 904 1023 858 626 600 130 64 205 431 606
0 0 0 0 0 0 0 0 0 0 0 22 27 53 92 264 439 590 692 989 904 808 849 815 862 729 633 392 46 21 359 635
0 0 0 0 0 0 0 0 0 0 0 0 0 24 92 191 214 259 418 514 498 553 583 622 454 482 573 651 334 253 294 371
0 0 0 0 0 0 0 0 0 0 0 0 0 0 0 0 14 12 123 171 100 211 376 418 193 217 244 179 157 112 98 121
0 0 0 0 0 0 0 0 0 0 0 1 0 1 0 0 0 1 0 56 25 29 119 107 207 75 61 37 37 208 132 40
0 0 0 0 0 0 0 0 0 0 0 0 0 0 0 0 0 0 0 0 10 49 71 98 33 31 63 65 41 18 38 54
0 0 0 0 0 0 0 0 0 0 0 0 0 3 0 0 0 0 0 0 0 23 17 57 93 45 39 28 18 3 20 83

GFSFLT1_con_mucape_108.txt.gz
CAPE
0 0 0 0 0 0 0 0 0 0 0 0 0 0 3 410 1346 2136 2103 2169 2060 2128 2254 2163 2079 1899 1824 2177 1923 1909 1792 1706
1 0 0 0 0 0 0 0 0 0 0 0 0 0 0 0 325 1221 2012 2115 2123 2007 2105 2071 1914 1850 1772 2003 1723 1627 1426 1311
0 1 0 0 0 0 0 0 0 0 0 0 0 0 0 0 0 207 1166 1593 1781 2036 2113 2032 1792 1555 1507 1778 1402 1276 1179 1126
2 0 0 0 0 0 0 0 0 0 0 0 0 0 0 0 0 0 451 1369 1712 1845 2089 2033 1659 1103 512 1514 1351 1156 1055 1029
0 0 0 0 0 0 0 0 0 0 0 0 0 0 0 0 0 0 4 1453 1478 1822 1908 1847 1507 1129 1127 855 1267 1238 855 833
0 0 0 0 0 0 0 0 0 0 0 0 0 0 0 0 0 0 0 44 1349 1654 1700 1740 1778 1295 856 1265 1149 1058 880 638
0 0 0 0 0 0 0 0 0 0 0 0 0 0 0 0 0 0 0 4 508 1282 1584 1926 1741 1489 1337 1130 411 914 1037 883
0 0 0 0 0 0 0 0 0 0 0 0 0 4 0 0 0 0 0 0 217 598 1380 1900 1835 1617 1263 1084 933 398 795 971
0 0 0 0 0 0 0 0 0 0 0 0 0 4 5 1 3 0 0 0 121 725 1030 1567 1536 1520 1514 1240 998 814 747 864
0 0 0 0 0 0 0 0 0 0 0 0 0 8 3 34 99 158 14 0 6 1140 1486 1431 1341 1375 1392 1116 896 757 298 535
0 0 0 0 0 0 0 0 0 0 0 0 0 9 3 174 309 541 604 171 709 1220 1358 1333 1263 1284 1252 1195 847 777 1068 1081
0 0 0 0 0 0 0 0 0 0 0 0 0 0 0 158 279 558 556 498 831 1191 1350 1310 1159 1210 1123 1140 946 852 586 716
0 0 0 0 0 0 0 0 0 0 0 0 0 0 0 2 13 93 132 299 490 853 1125 1097 1102 1047 975 801 930 751 500 407
0 0 0 0 0 0 0 0 0 0 0 0 0 0 0 0 18 53 100 116 172 405 484 745 659 538 739 847 514 295 148 69
0 0 0 0 0 0 0 0 0 0 0 0 0 0 0 3 6 15 106 267 438 391 403 360 480 414 427 473 323 53 62 49
0 0 0 0 0 0 0 0 0 0 0 0 0 0 0 1 1 4 4 8 132 153 304 264 292 185 285 304 291 89 55 27
0 0 0 0 0 0 0 0 0 0 0 0 0 0 0 0 0 0 0 0 2 0 50 176 189 188 167 215 279 225 105 26
0 0 0 0 0 0 0 0 0 0 0 0 0 0 0 0 0 0 0 4 2 0 1 1 41 40 125 153 191 184 196 92
0 0 0 0 0 0 0 0 0 0 0 0 0 0 0 0 0 0 0 0 0 0 0 0 13 11 142 128 89 97 100 124

GFSFLT1_con_mucape_111.txt.gz
CAPE
0 0 0 0 0 0 0 0 0 0 0 0 0 0 5 699 901 1062 1345 1682 1967 1750 1569 1866 2068 1962 1693 1734 1575 1550 1487 1583
0 0 0 0 0 0 0 0 0 0 0 0 0 0 0 0 0 33 815 1066 1488 1875 1862 1642 1573 1649 1774 1552 1672 1773 1654 1627
22 0 0 0 0 0 0 0 0 0 0 0 0 0 0 0 0 0 0 11 441 1273 1711 1712 1770 1539 1631 1569 1227 1416 1545 1652
17 0 0 0 0 0 0 0 0 0 0 0 0 0 0 0 0 0 0 0 180 528 1125 1560 1764 1669 1332 1221 1229 818 789 1217
0 0 0 0 0 0 0 0 0 0 0 0 0 0 0 0 0 0 0 0 0 324 573 919 1404 1596 1291 1020 908 258 25 241
0 0 0 0 0 0 0 0 0 0 0 0 0 0 0 0 0 0 0 0 0 0 47 540 766 1206 1094 1199 842 410 233 422
0 0 0 0 0 0 0 0 0 0 0 0 0 0 0 0 0 0 0 0 0 0 0 12 636 701 840 911 1017 614 497 462
17 1 0 0 0 0 0 0 0 0 0 0 0 0 0 0 0 0 0 0 0 0 0 0 239 705 590 580 760 755 678 666
13 1 0 0 0 0 0 0 0 0 0 0 0 0 0 0 0 1 1 0 0 0 0 1 40 515 722 684 712 548 584 680
11 0 0 0 0 0 0 0 0 0 0 0 0 0 0 1 1 2 2 4 43 6 0 0 0 0 84 474 546 544 682 582
0 0 0 0 0 0 0 0 0 0 0 0 0 0 0 0 1 5 0 7 50 52 10 0 46 242 37 470 620 720 791 578
0 0 0 0 0 0 0 0 0 0 0 0 0 0 0 0 0 0 1 0 4 222 158 424 427 553 408 477 710 887 887 558
0 0 0 0 0 0 0 0 0 0 0 0 0 0 0 0 0 0 0 0 0 1 129 261 556 464 377 544 637 834 706 553
0 0 0 0 0 0 0 0 0 0 0 0 0 0 0 0 0 0 0 0 0 0 3 9 97 323 457 755 801 741 692 647
0 0 0 0 0 0 0 0 0 0 0 0 0 0 0 0 0 0 0 0 0 1 40 25 64 54 136 257 475 565 576 619
0 0 0 0 0 0 0 0 0 0 0 0 0 0 0 0 0 0 0 1 0 5 20 53 76 74 5 58 203 307 366 333
0 0 0 0 0 0 0 0 0 0 0 0 0 0 0 0 0 0 0 0 1 8 3 2 23 65 40 14 0 100 283 247
0 0 0 0 0 0 0 0 0 0 0 0 0 3 0 0 0 0 4 0 2 3 4 1 0 16 17 0 33 85 130 149
0 0 0 0 0 0 0 0 0 0 0 0 0 0 0 0 0 0 0 0 0 3 0 0 0 0 2 0 0 102 74 97

GFSFLT1_con_mucape_114.txt.gz
CAPE
0 0 0 0 0 0 0 0 0 0 0 0 0 0 13 553 577 725 817 818 777 1105 1206 1195 1193 1082 1199 1510 1773 1754 1548 1265
0 0 0 0 0 0 0 0 0 0 0 0 0 0 0 0 0 2 587 749 964 843 852 1133 1332 1083 1094 1075 1071 1323 1443 1337
0 0 0 0 0 0 0 0 0 0 0 0 0 0 0 0 0 0 0 0 306 752 733 515 874 1253 1317 1028 946 812 894 927
21 5 2 0 0 0 0 0 0 0 0 0 0 0 0 0 0 0 0 0 0 0 43 450 245 573 1169 1307 1006 805 601 603
1 0 5 7 9 6 5 0 0 0 0 0 0 0 0 0 0 0 0 0 0 0 0 0 29 119 297 979 1106 924 819 525
1 9 0 0 0 0 0 0 0 0 0 0 0 0 0 0 0 0 0 0 0 0 0 0 0 13 122 697 1049 1009 803 561
2 0 0 2 2 0 0 0 0 0 0 0 0 0 0 0 0 0 0 0 0 0 0 0 0 0 0 253 817 753 596 479
4 0 0 0 1 7 0 0 0 0 0 0 0 0 0 0 0 0 0 0 0 0 0 0 0 0 1 26 458 647 575 359
15 8 2 14 15 0 0 0 0 0 0 0 0 0 0 0 0 0 0 0 0 1 0 0 1 0 0 4 231 442 546 378
5 4 0 0 0 0 0 0 0 0 0 0 0 0 0 0 0 0 0 0 0 2 0 1 2 0 0 2 101 354 492 364
0 0 0 0 0 0 0 0 0 0 0 0 0 0 0 0 0 0 0 0 0 2 0 0 27 3 0 0 0 255 310 151
0 0 0 0 0 0 0 0 0 0 0 0 0 0 0 0 0 0 0 0 0 0 0 4 1 149 284 16 5 68 300 220
0 0 0 0 0 0 0 0 0 0 0 0 0 0 0 0 0 0 0 0 0 0 0 0 0 13 242 391 275 58 218 177
0 0 0 0 0 0 0 0 0 0 0 0 0 0 0 0 0 0 0 0 0 0 0 0 0 0 0 118 210 170 145 164
0 0 0 0 0 0 0 0 0 0 0 0 0 0 0 0 0 0 0 0 0 0 0 0 0 1 8 9 25 52 136 186
0 0 0 0 0 0 0 0 0 0 0 0 0 0 0 0 0 0 0 0 0 0 0 6 9 12 29 24 17 15 0 0
0 0 0 0 0 0 0 0 0 0 0 0 0 0 0 0 0 0 0 0 0 0 0 4 15 6 0 20 0 0 0 17
0 0 0 0 0 0 0 0 0 0 0 0 0 0 0 0 0 0 0 0 0 0 3 4 7 2 0 17 21 0 1 0
0 0 0 0 0 0 0 0 0 0 0 0 0 0 0 0 0 0 0 0 0 0 0 2 0 0 0 0 2 0 0 0

GFSFLT1_con_mucape_117.txt.gz
CAPE
0 0 0 0 0 0 0 0 0 0 0 0 0 0 0 0 86 404 404 388 356 299 300 487 829 862 700 534 869 1086 845 914
0 0 0 0 0 0 0 0 0 0 0 0 0 0 0 0 0 0 0 63 290 289 313 361 389 387 673 811 745 469 531 535
0 0 0 1 0 0 0 0 0 0 0 0 0 0 0 0 0 0 0 0 0 0 0 260 487 403 404 625 903 994 769 686
0 0 5 18 3 0 0 0 0 0 0 0 0 0 0 0 0 0 0 0 0 0 0 0 0 134 269 179 738 1094 891 780
8 26 95 88 40 5 5 0 0 0 0 0 0 0 0 0 0 0 0 0 0 0 0 0 0 0 0 0 47 364 809 737
45 169 171 98 10 5 13 18 1 0 0 0 0 0 0 0 0 0 0 0 0 0 0 0 0 0 0 0 0 1 418 567
70 92 111 82 55 0 0 0 0 0 0 0 0 0 0 0 0 0 0 0 0 0 0 0 0 0 0 0 0 12 141 256
58 64 83 50 7 0 0 0 0 0 0 0 0 0 0 0 0 0 0 0 0 0 0 0 0 0 0 0 0 1 35 137
2 2 2 0 0 0 0 0 0 0 0 0 0 0 0 0 0 0 0 0 0 0 0 0 0 0 0 0 3 0 9 103
0 0 0 0 0 0 0 0 0 0 0 0 0 0 0 0 0 0 0 0 0 0 0 0 0 0 0 2 5 5 0 29
0 0 0 0 0 0 0 0 0 0 0 0 0 0 0 0 0 0 0 0 0 0 0 0 0 0 0 0 5 17 4 45
0 0 0 0 0 0 1 0 0 0 0 0 0 0 0 0 0 0 0 0 0 0 0 0 0 0 0 1 2 24 1 1
0 0 0 0 0 0 0 0 0 0 0 0 0 0 0 0 0 0 0 0 0 0 0 0 0 0 0 0 0 0 51 7
0 0 0 0 0 0 0 0 0 0 0 0 0 0 0 0 0 0 0 0 0 0 0 0 0 0 0 0 0 6 99 129
0 0 0 0 0 0 0 0 0 0 0 0 0 0 0 0 0 0 0 0 0 0 0 0 0 0 0 0 0 0 8 62
0 0 0 0 0 0 0 0 0 0 0 0 0 0 0 0 0 0 0 0 0 0 0 0 0 0 0 0 6 13 8 23
0 0 0 0 0 0 0 0 0 0 0 0 0 0 0 0 0 0 0 0 0 0 0 0 0 0 1 1 0 1 2 9
0 0 0 0 0 0 0 0 0 0 0 0 0 0 0 0 0 0 0 0 0 0 0 0 0 0 8 6 1 0 1 0
0 0 0 0 0 0 0 0 0 0 0 0 0 0 0 0 0 0 0 0 0 0 0 0 0 0 0 0 0 0 0 0

GFSFLT1_con_mucape_120.txt.gz
CAPE
0 0 0 0 0 0 49 536 726 643 284 10 0 0 0 0 0 0 11 42 81 148 109 99 130 196 364 994 680 728 615 680
0 0 0 0 0 0 1 251 536 182 33 0 0 0 0 0 0 0 0 0 0 0 32 133 119 38 82 153 417 496 276 206
0 0 0 0 0 0 0 0 1 0 0 7 0 0 0 0 0 0 0 0 0 0 0 0 0 0 25 86 188 483 555 768
1 2 2 5 3 6 52 74 44 31 22 7 0 0 0 0 0 0 0 0 0 0 0 0 0 0 0 0 7 113 393 530
4 12 17 40 28 55 132 124 149 5 9 0 0 0 0 0 0 0 0 0 0 0 0 0 0 0 0 0 0 0 0 98
5 13 29 27 16 61 61 88 68 0 0 0 0 0 0 0 0 0 0 0 0 0 0 0 0 0 0 0 0 0 0 1
7 5 21 8 25 66 69 42 5 5 0 0 0 0 0 0 0 0 0 0 0 0 0 0 0 0 0 0 0 0 0 2
17 10 8 12 49 6 2 22 16 0 0 0 0 0 0 0 0 0 0 0 0 0 0 0 0 0 0 0 0 0 0 0
0 0 0 0 0 0 0 0 0 0 0 0 0 0 0 0 0 0 0 0 0 0 0 0 0 0 0 0 0 2 2 0
0 0 0 0 0 0 0 0 0 0 0 0 0 0 0 0 0 0 0 0 0 0 0 0 0 0 0 0 0 0 4 1
0 0 0 0 0 0 0 0 0 0 0 0 0 0 0 0 0 0 0 0 0 0 0 0 0 0 0 0 0 3 1 6
0 0 0 0 0 0 0 0 0 0 0 0 0 0 0 0 0 0 0 0 0 0 0 0 0 0 0 0 0 0 0 0
0 0 0 0 0 0 0 0 0 0 0 0 0 0 0 0 0 0 0 0 0 0 0 0 0 0 0 0 0 0 0 0
0 0 0 0 0 0 0 0 0 0 0 0 0 0 0 0 0 0 0 0 0 0 0 0 0 0 0 0 0 0 0 0
0 0 0 0 0 0 0 0 0 0 0 0 0 0 0 0 0 0 0 0 0 0 0 0 0 0 0 0 0 0 0 2
0 0 0 0 0 0 0 0 0 0 0 0 0 0 0 0 0 0 0 0 0 0 0 0 0 0 0 0 0 0 0 5
0 0 0 0 0 0 0 0 0 0 0 0 0 0 0 0 0 0 0 0 0 0 0 0 0 0 0 0 0 0 1 5
0 0 0 0 0 0 0 0 0 0 0 0 0 0 0 0 0 0 0 0 0 0 0 0 0 0 0 0 0 1 6 3
0 0 0 0 0 0 0 0 0 0 0 0 0 0 0 0 0 0 0 0 0 0 0 0 0 0 0 0 0 0 0 0